Time,TemperatureF,DewpointF,PressureIn,WindDirection,WindDirectionDegrees,WindSpeedMPH,WindSpeedGustMPH,Humidity,HourlyPrecipIn,Conditions,Clouds,dailyrainin,SoftwareType,DateUTC
2013-04-09 00:00:00,46.5,42.8,29.99,West,280,2.0,4.0,87,0.00,,,0.14,Wunderground v.1.15,2013-04-09 04:00:00,
2013-04-09 00:01:00,46.5,42.8,29.99,WNW,290,3.0,6.0,87,0.00,,,0.14,Wunderground v.1.15,2013-04-09 04:01:00,
2013-04-09 00:03:00,46.4,42.7,29.99,West,278,3.0,6.0,87,0.00,,,0.14,Wunderground v.1.15,2013-04-09 04:03:00,
2013-04-09 00:06:00,46.3,42.6,29.99,West,278,2.0,6.0,87,0.00,,,0.14,Wunderground v.1.15,2013-04-09 04:06:00,
2013-04-09 00:07:00,46.3,42.6,29.99,West,281,2.0,6.0,87,0.00,,,0.14,Wunderground v.1.15,2013-04-09 04:07:00,
2013-04-09 00:11:00,46.3,42.6,29.99,West,277,3.0,4.0,87,0.00,,,0.14,Wunderground v.1.15,2013-04-09 04:11:00,
2013-04-09 00:13:00,46.2,42.5,30.00,NW,320,6.0,6.0,87,0.00,,,0.14,Wunderground v.1.15,2013-04-09 04:13:00,
2013-04-09 00:14:00,46.2,42.5,29.99,West,277,2.0,6.0,87,0.00,,,0.14,Wunderground v.1.15,2013-04-09 04:14:00,
2013-04-09 00:16:00,46.1,42.4,30.00,NNE,19,5.0,6.0,87,0.00,,,0.14,Wunderground v.1.15,2013-04-09 04:16:00,
2013-04-09 00:18:00,46.1,42.4,30.00,NW,319,4.0,6.0,87,0.00,,,0.14,Wunderground v.1.15,2013-04-09 04:18:00,
2013-04-09 00:20:00,46.0,42.3,30.00,West,277,2.0,4.0,87,0.00,,,0.14,Wunderground v.1.15,2013-04-09 04:20:00,
2013-04-09 00:22:00,46.0,42.3,30.00,NW,324,6.0,6.0,87,0.00,,,0.14,Wunderground v.1.15,2013-04-09 04:22:00,
2013-04-09 00:25:00,45.9,42.2,30.00,NW,305,4.0,6.0,87,0.00,,,0.14,Wunderground v.1.15,2013-04-09 04:25:00,
2013-04-09 00:28:00,45.8,42.2,30.00,NW,317,4.0,6.0,87,0.00,,,0.14,Wunderground v.1.15,2013-04-09 04:28:00,
2013-04-09 00:32:00,45.6,42.3,30.01,West,281,3.0,5.0,88,0.00,,,0.14,Wunderground v.1.15,2013-04-09 04:32:00,
2013-04-09 00:33:00,45.6,42.3,30.01,WNW,297,2.0,5.0,88,0.00,,,0.14,Wunderground v.1.15,2013-04-09 04:33:00,
2013-04-09 00:34:00,45.6,42.3,30.01,WNW,290,2.0,5.0,88,0.00,,,0.14,Wunderground v.1.15,2013-04-09 04:34:00,
2013-04-09 00:39:00,45.3,42.0,30.01,West,278,4.0,5.0,88,0.00,,,0.14,Wunderground v.1.15,2013-04-09 04:39:00,
2013-04-09 00:41:00,45.3,42.0,30.01,WNW,298,9.0,9.0,88,0.00,,,0.14,Wunderground v.1.15,2013-04-09 04:41:00,
2013-04-09 00:42:00,45.2,41.9,30.01,WNW,285,6.0,9.0,88,0.00,,,0.14,Wunderground v.1.15,2013-04-09 04:42:00,
2013-04-09 00:43:00,45.2,41.9,30.01,NNE,31,5.0,9.0,88,0.00,,,0.14,Wunderground v.1.15,2013-04-09 04:43:00,
2013-04-09 00:48:00,45.0,42.0,30.01,NW,310,3.0,9.0,89,0.00,,,0.14,Wunderground v.1.15,2013-04-09 04:48:00,
2013-04-09 00:49:00,45.0,42.0,30.01,West,279,1.0,9.0,89,0.00,,,0.14,Wunderground v.1.15,2013-04-09 04:49:00,
2013-04-09 00:53:00,44.9,42.1,30.01,NW,311,3.0,7.0,90,0.00,,,0.14,Wunderground v.1.15,2013-04-09 04:53:00,
2013-04-09 00:54:00,44.8,42.0,30.01,WNW,294,4.0,7.0,90,0.00,,,0.14,Wunderground v.1.15,2013-04-09 04:54:00,
2013-04-09 00:55:00,44.8,42.0,30.01,West,269,2.0,7.0,90,0.00,,,0.14,Wunderground v.1.15,2013-04-09 04:55:00,
2013-04-09 00:56:00,44.8,42.0,30.01,NNW,332,5.0,7.0,90,0.00,,,0.14,Wunderground v.1.15,2013-04-09 04:56:00,
2013-04-09 01:00:00,44.6,41.8,30.01,NW,326,3.0,4.0,90,0.00,,,0.14,Wunderground v.1.15,2013-04-09 05:00:00,
2013-04-09 01:01:00,44.6,42.1,30.02,North,352,5.0,5.0,91,0.00,,,0.14,Wunderground v.1.15,2013-04-09 05:01:00,
2013-04-09 01:02:00,44.6,42.1,30.02,WNW,285,9.0,9.0,91,0.00,,,0.14,Wunderground v.1.15,2013-04-09 05:02:00,
2013-04-09 01:04:00,44.5,42.0,30.02,WNW,291,8.0,9.0,91,0.00,,,0.14,Wunderground v.1.15,2013-04-09 05:04:00,
2013-04-09 01:07:00,44.4,41.9,30.02,NW,317,4.0,9.0,91,0.00,,,0.14,Wunderground v.1.15,2013-04-09 05:07:00,
2013-04-09 01:10:00,44.3,41.8,30.03,West,278,1.0,4.0,91,0.00,,,0.14,Wunderground v.1.15,2013-04-09 05:10:00,
2013-04-09 01:13:00,44.3,41.8,30.03,West,277,2.0,4.0,91,0.00,,,0.14,Wunderground v.1.15,2013-04-09 05:13:00,
2013-04-09 01:14:00,44.3,41.8,30.03,West,271,1.0,4.0,91,0.00,,,0.14,Wunderground v.1.15,2013-04-09 05:14:00,
2013-04-09 01:17:00,44.3,41.8,30.04,West,277,3.0,4.0,91,0.00,,,0.14,Wunderground v.1.15,2013-04-09 05:17:00,
2013-04-09 01:20:00,44.3,41.8,30.04,WNW,288,2.0,2.0,91,0.00,,,0.14,Wunderground v.1.15,2013-04-09 05:20:00,
2013-04-09 01:23:00,44.3,41.6,30.04,WNW,283,3.0,5.0,90,0.00,,,0.14,Wunderground v.1.15,2013-04-09 05:23:00,
2013-04-09 01:24:00,44.3,41.6,30.04,West,277,2.0,5.0,90,0.00,,,0.14,Wunderground v.1.15,2013-04-09 05:24:00,
2013-04-09 01:26:00,44.3,41.6,30.04,WNW,293,3.0,5.0,90,0.00,,,0.14,Wunderground v.1.15,2013-04-09 05:26:00,
2013-04-09 01:31:00,44.2,41.2,30.05,NW,322,5.0,6.0,89,0.00,,,0.14,Wunderground v.1.15,2013-04-09 05:31:00,
2013-04-09 01:32:00,44.2,41.2,30.05,NNW,332,2.0,6.0,89,0.00,,,0.14,Wunderground v.1.15,2013-04-09 05:32:00,
2013-04-09 01:34:00,44.2,41.2,30.05,West,271,3.0,6.0,89,0.00,,,0.14,Wunderground v.1.15,2013-04-09 05:34:00,
2013-04-09 01:35:00,44.1,41.1,30.05,West,277,1.0,6.0,89,0.00,,,0.14,Wunderground v.1.15,2013-04-09 05:35:00,
2013-04-09 01:37:00,44.1,41.1,30.06,West,262,5.0,6.0,89,0.00,,,0.14,Wunderground v.1.15,2013-04-09 05:37:00,
2013-04-09 01:40:00,44.1,41.1,30.06,NW,319,10.0,10.0,89,0.00,,,0.14,Wunderground v.1.15,2013-04-09 05:40:00,
2013-04-09 01:43:00,44.1,41.1,30.06,West,262,4.0,10.0,89,0.00,,,0.14,Wunderground v.1.15,2013-04-09 05:43:00,
2013-04-09 01:45:00,44.0,41.0,30.06,WNW,298,1.0,10.0,89,0.00,,,0.14,Wunderground v.1.15,2013-04-09 05:45:00,
2013-04-09 01:49:00,44.0,41.0,30.06,NW,322,4.0,10.0,89,0.00,,,0.14,Wunderground v.1.15,2013-04-09 05:49:00,
2013-04-09 01:50:00,44.0,41.0,30.06,WNW,294,3.0,4.0,89,0.00,,,0.14,Wunderground v.1.15,2013-04-09 05:50:00,
2013-04-09 01:52:00,44.0,41.0,30.06,WNW,285,4.0,4.0,89,0.00,,,0.14,Wunderground v.1.15,2013-04-09 05:52:00,
2013-04-09 01:56:00,43.9,40.9,30.06,WNW,290,2.0,4.0,89,0.00,,,0.14,Wunderground v.1.15,2013-04-09 05:56:00,
2013-04-09 01:58:00,43.9,40.9,30.06,NW,324,2.0,4.0,89,0.00,,,0.14,Wunderground v.1.15,2013-04-09 05:58:00,
2013-04-09 01:59:00,43.9,40.9,30.07,West,264,2.0,4.0,89,0.00,,,0.14,Wunderground v.1.15,2013-04-09 05:59:00,
2013-04-09 02:00:00,43.9,40.9,30.07,NW,304,3.0,3.0,89,0.00,,,0.14,Wunderground v.1.15,2013-04-09 06:00:00,
2013-04-09 02:02:00,43.8,40.8,30.07,NNW,332,4.0,5.0,89,0.00,,,0.14,Wunderground v.1.15,2013-04-09 06:02:00,
2013-04-09 02:03:00,43.8,40.8,30.07,NNW,339,2.0,5.0,89,0.00,,,0.14,Wunderground v.1.15,2013-04-09 06:03:00,
2013-04-09 02:04:00,43.7,40.7,30.07,WNW,293,5.0,5.0,89,0.00,,,0.14,Wunderground v.1.15,2013-04-09 06:04:00,
2013-04-09 02:05:00,43.7,40.7,30.07,WSW,256,3.0,5.0,89,0.00,,,0.14,Wunderground v.1.15,2013-04-09 06:05:00,
2013-04-09 02:07:00,43.6,40.6,30.07,NNW,342,6.0,8.0,89,0.00,,,0.14,Wunderground v.1.15,2013-04-09 06:07:00,
2013-04-09 02:08:00,43.6,40.6,30.07,West,277,1.0,8.0,89,0.00,,,0.14,Wunderground v.1.15,2013-04-09 06:08:00,
2013-04-09 02:09:00,43.5,40.5,30.07,NW,309,3.0,8.0,89,0.00,,,0.14,Wunderground v.1.15,2013-04-09 06:09:00,
2013-04-09 02:10:00,43.5,40.5,30.07,West,278,2.0,3.0,89,0.00,,,0.14,Wunderground v.1.15,2013-04-09 06:10:00,
2013-04-09 02:12:00,43.3,40.6,30.07,West,264,1.0,3.0,90,0.00,,,0.14,Wunderground v.1.15,2013-04-09 06:12:00,
2013-04-09 02:13:00,43.3,40.6,30.07,WNW,301,1.0,3.0,90,0.00,,,0.14,Wunderground v.1.15,2013-04-09 06:13:00,
2013-04-09 02:15:00,43.3,40.6,30.07,WNW,291,2.0,3.0,90,0.00,,,0.14,Wunderground v.1.15,2013-04-09 06:15:00,
2013-04-09 02:17:00,43.2,40.5,30.07,NW,310,2.0,3.0,90,0.00,,,0.14,Wunderground v.1.15,2013-04-09 06:17:00,
2013-04-09 02:18:00,43.2,40.5,30.07,NW,314,2.0,3.0,90,0.00,,,0.14,Wunderground v.1.15,2013-04-09 06:18:00,
2013-04-09 02:20:00,43.1,40.4,30.07,WNW,295,3.0,3.0,90,0.00,,,0.14,Wunderground v.1.15,2013-04-09 06:20:00,
2013-04-09 02:22:00,43.0,40.3,30.07,WNW,289,2.0,5.0,90,0.00,,,0.14,Wunderground v.1.15,2013-04-09 06:22:00,
2013-04-09 02:23:00,43.0,40.3,30.07,WSW,252,1.0,5.0,90,0.00,,,0.14,Wunderground v.1.15,2013-04-09 06:23:00,
2013-04-09 02:25:00,42.9,40.2,30.07,WNW,300,1.0,5.0,90,0.00,,,0.14,Wunderground v.1.15,2013-04-09 06:25:00,
2013-04-09 02:26:00,42.9,40.2,30.07,NW,319,3.0,5.0,90,0.00,,,0.14,Wunderground v.1.15,2013-04-09 06:26:00,
2013-04-09 02:27:00,42.8,40.1,30.07,NW,323,3.0,7.0,90,0.00,,,0.14,Wunderground v.1.15,2013-04-09 06:27:00,
2013-04-09 02:29:00,42.7,40.3,30.07,NW,305,1.0,7.0,91,0.00,,,0.14,Wunderground v.1.15,2013-04-09 06:29:00,
2013-04-09 02:30:00,42.7,40.3,30.08,West,259,1.0,2.0,91,0.00,,,0.14,Wunderground v.1.15,2013-04-09 06:30:00,
2013-04-09 02:31:00,42.7,40.3,30.08,West,278,0.0,2.0,91,0.00,,,0.14,Wunderground v.1.15,2013-04-09 06:31:00,
2013-04-09 02:33:00,42.6,40.2,30.08,NW,307,1.0,4.0,91,0.00,,,0.14,Wunderground v.1.15,2013-04-09 06:33:00,
2013-04-09 02:34:00,42.5,40.1,30.08,WNW,288,1.0,4.0,91,0.00,,,0.14,Wunderground v.1.15,2013-04-09 06:34:00,
2013-04-09 02:35:00,42.5,40.1,30.08,WNW,289,4.0,5.0,91,0.00,,,0.14,Wunderground v.1.15,2013-04-09 06:35:00,
2013-04-09 02:36:00,42.4,40.0,30.08,NW,307,4.0,8.0,91,0.00,,,0.14,Wunderground v.1.15,2013-04-09 06:36:00,
2013-04-09 02:38:00,42.4,40.0,30.08,NNW,327,1.0,8.0,91,0.00,,,0.14,Wunderground v.1.15,2013-04-09 06:38:00,
2013-04-09 02:40:00,42.3,39.9,30.08,NW,305,2.0,6.0,91,0.00,,,0.14,Wunderground v.1.15,2013-04-09 06:40:00,
2013-04-09 02:41:00,42.2,39.8,30.08,NW,314,2.0,6.0,91,0.00,,,0.14,Wunderground v.1.15,2013-04-09 06:41:00,
2013-04-09 02:42:00,42.2,39.8,30.08,NNW,345,2.0,6.0,91,0.00,,,0.14,Wunderground v.1.15,2013-04-09 06:42:00,
2013-04-09 02:43:00,42.2,39.8,30.08,North,356,5.0,6.0,91,0.00,,,0.14,Wunderground v.1.15,2013-04-09 06:43:00,
2013-04-09 02:45:00,42.1,39.7,30.08,NW,317,1.0,7.0,91,0.00,,,0.14,Wunderground v.1.15,2013-04-09 06:45:00,
2013-04-09 02:46:00,42.1,39.7,30.08,WNW,295,2.0,7.0,91,0.00,,,0.14,Wunderground v.1.15,2013-04-09 06:46:00,
2013-04-09 02:47:00,42.0,39.8,30.08,WSW,240,0.0,7.0,92,0.00,,,0.14,Wunderground v.1.15,2013-04-09 06:47:00,
2013-04-09 02:48:00,42.0,39.8,30.08,NW,310,2.0,7.0,92,0.00,,,0.14,Wunderground v.1.15,2013-04-09 06:48:00,
2013-04-09 02:50:00,41.9,39.7,30.08,NNW,346,1.0,2.0,92,0.00,,,0.14,Wunderground v.1.15,2013-04-09 06:50:00,
2013-04-09 02:51:00,41.9,39.7,30.08,NW,313,5.0,5.0,92,0.00,,,0.14,Wunderground v.1.15,2013-04-09 06:51:00,
2013-04-09 02:52:00,41.9,39.7,30.08,NNW,338,3.0,5.0,92,0.00,,,0.14,Wunderground v.1.15,2013-04-09 06:52:00,
2013-04-09 02:53:00,41.8,39.6,30.08,NW,316,1.0,6.0,92,0.00,,,0.14,Wunderground v.1.15,2013-04-09 06:53:00,
2013-04-09 02:55:00,41.7,39.5,30.08,NNW,342,3.0,6.0,92,0.00,,,0.14,Wunderground v.1.15,2013-04-09 06:55:00,
2013-04-09 02:57:00,41.7,39.5,30.08,NNW,347,3.0,6.0,92,0.00,,,0.14,Wunderground v.1.15,2013-04-09 06:57:00,
2013-04-09 02:58:00,41.7,39.5,30.08,NNW,329,2.0,6.0,92,0.00,,,0.14,Wunderground v.1.15,2013-04-09 06:58:00,
2013-04-09 03:01:00,41.6,39.4,30.08,North,1,9.0,9.0,92,0.00,,,0.14,Wunderground v.1.15,2013-04-09 07:01:00,
2013-04-09 03:02:00,41.5,39.3,30.08,NE,42,1.0,9.0,92,0.00,,,0.14,Wunderground v.1.15,2013-04-09 07:02:00,
2013-04-09 03:04:00,41.4,39.3,30.08,NE,41,3.0,9.0,92,0.00,,,0.14,Wunderground v.1.15,2013-04-09 07:04:00,
2013-04-09 03:06:00,41.3,39.2,30.08,NNW,335,3.0,9.0,92,0.00,,,0.14,Wunderground v.1.15,2013-04-09 07:06:00,
2013-04-09 03:07:00,41.3,39.2,30.08,ENE,62,3.0,9.0,92,0.00,,,0.14,Wunderground v.1.15,2013-04-09 07:07:00,
2013-04-09 03:09:00,41.2,39.1,30.08,North,4,1.0,9.0,92,0.00,,,0.14,Wunderground v.1.15,2013-04-09 07:09:00,
2013-04-09 03:12:00,41.2,39.1,30.08,NNW,338,2.0,3.0,92,0.00,,,0.14,Wunderground v.1.15,2013-04-09 07:12:00,
2013-04-09 03:15:00,41.1,39.0,30.08,NNW,329,2.0,6.0,92,0.00,,,0.14,Wunderground v.1.15,2013-04-09 07:15:00,
2013-04-09 03:17:00,41.1,39.0,30.08,NE,52,3.0,6.0,92,0.00,,,0.14,Wunderground v.1.15,2013-04-09 07:17:00,
2013-04-09 03:18:00,41.0,38.9,30.08,NNW,329,2.0,6.0,92,0.00,,,0.14,Wunderground v.1.15,2013-04-09 07:18:00,
2013-04-09 03:20:00,40.9,38.8,30.08,NE,36,8.0,8.0,92,0.00,,,0.14,Wunderground v.1.15,2013-04-09 07:20:00,
2013-04-09 03:22:00,40.8,38.7,30.08,WNW,290,0.0,9.0,92,0.00,,,0.14,Wunderground v.1.15,2013-04-09 07:22:00,
2013-04-09 03:23:00,40.7,38.6,30.08,West,273,0.0,9.0,92,0.00,,,0.14,Wunderground v.1.15,2013-04-09 07:23:00,
2013-04-09 03:25:00,40.7,38.6,30.08,NNE,19,1.0,9.0,92,0.00,,,0.14,Wunderground v.1.15,2013-04-09 07:25:00,
2013-04-09 03:27:00,40.6,38.5,30.08,NW,308,0.0,9.0,92,0.00,,,0.14,Wunderground v.1.15,2013-04-09 07:27:00,
2013-04-09 03:28:00,40.6,38.5,30.08,NNW,332,2.0,9.0,92,0.00,,,0.14,Wunderground v.1.15,2013-04-09 07:28:00,
2013-04-09 03:30:00,40.6,38.7,30.08,NNE,19,3.0,3.0,93,0.00,,,0.14,Wunderground v.1.15,2013-04-09 07:30:00,
2013-04-09 03:32:00,40.6,38.7,30.08,WNW,297,1.0,3.0,93,0.00,,,0.14,Wunderground v.1.15,2013-04-09 07:32:00,
2013-04-09 03:33:00,40.5,38.6,30.08,ENE,75,0.0,3.0,93,0.00,,,0.14,Wunderground v.1.15,2013-04-09 07:33:00,
2013-04-09 03:35:00,40.5,38.6,30.08,NNW,335,0.0,3.0,93,0.00,,,0.14,Wunderground v.1.15,2013-04-09 07:35:00,
2013-04-09 03:37:00,40.5,38.6,30.08,ENE,58,2.0,3.0,93,0.00,,,0.14,Wunderground v.1.15,2013-04-09 07:37:00,
2013-04-09 03:38:00,40.5,38.6,30.08,ENE,60,1.0,3.0,93,0.00,,,0.14,Wunderground v.1.15,2013-04-09 07:38:00,
2013-04-09 03:40:00,40.5,38.6,30.08,NNW,330,0.0,1.0,93,0.00,,,0.14,Wunderground v.1.15,2013-04-09 07:40:00,
2013-04-09 03:43:00,40.4,38.5,30.08,NNW,344,1.0,2.0,93,0.00,,,0.14,Wunderground v.1.15,2013-04-09 07:43:00,
2013-04-09 03:45:00,40.4,38.5,30.08,WSW,246,0.0,4.0,93,0.00,,,0.14,Wunderground v.1.15,2013-04-09 07:45:00,
2013-04-09 03:48:00,40.4,38.5,30.08,NW,323,0.0,4.0,93,0.00,,,0.14,Wunderground v.1.15,2013-04-09 07:48:00,
2013-04-09 03:50:00,40.3,38.4,30.08,NNW,339,1.0,3.0,93,0.00,,,0.14,Wunderground v.1.15,2013-04-09 07:50:00,
2013-04-09 03:53:00,40.2,38.3,30.08,WNW,293,2.0,5.0,93,0.00,,,0.14,Wunderground v.1.15,2013-04-09 07:53:00,
2013-04-09 03:54:00,40.2,38.3,30.08,NNW,333,1.0,5.0,93,0.00,,,0.14,Wunderground v.1.15,2013-04-09 07:54:00,
2013-04-09 03:55:00,40.2,38.3,30.08,WNW,293,1.0,5.0,93,0.00,,,0.14,Wunderground v.1.15,2013-04-09 07:55:00,
2013-04-09 03:58:00,40.1,38.2,30.08,NNW,329,4.0,5.0,93,0.00,,,0.14,Wunderground v.1.15,2013-04-09 07:58:00,
2013-04-09 03:59:00,40.1,38.2,30.08,NW,321,2.0,5.0,93,0.00,,,0.14,Wunderground v.1.15,2013-04-09 07:59:00,
2013-04-09 04:00:00,40.1,38.2,30.08,NW,317,0.0,2.0,93,0.00,,,0.14,Wunderground v.1.15,2013-04-09 08:00:00,
2013-04-09 04:03:00,40.0,38.1,30.08,NNE,29,0.0,2.0,93,0.00,,,0.14,Wunderground v.1.15,2013-04-09 08:03:00,
2013-04-09 04:05:00,40.0,38.1,30.08,NE,34,1.0,2.0,93,0.00,,,0.14,Wunderground v.1.15,2013-04-09 08:05:00,
2013-04-09 04:06:00,40.0,38.1,30.08,NE,34,1.0,2.0,93,0.00,,,0.14,Wunderground v.1.15,2013-04-09 08:06:00,
2013-04-09 04:09:00,40.0,38.1,30.09,North,349,0.0,2.0,93,0.00,,,0.14,Wunderground v.1.15,2013-04-09 08:09:00,
2013-04-09 04:12:00,40.0,38.1,30.09,NNE,22,0.0,1.0,93,0.00,,,0.14,Wunderground v.1.15,2013-04-09 08:12:00,
2013-04-09 04:15:00,39.9,38.0,30.09,NNW,339,1.0,3.0,93,0.00,,,0.14,Wunderground v.1.15,2013-04-09 08:15:00,
2013-04-09 04:17:00,39.9,38.0,30.09,NW,319,2.0,3.0,93,0.00,,,0.14,Wunderground v.1.15,2013-04-09 08:17:00,
2013-04-09 04:18:00,39.9,38.0,30.09,NW,308,1.0,3.0,93,0.00,,,0.14,Wunderground v.1.15,2013-04-09 08:18:00,
2013-04-09 04:20:00,39.9,38.0,30.09,NW,304,1.0,1.0,93,0.00,,,0.14,Wunderground v.1.15,2013-04-09 08:20:00,
2013-04-09 04:22:00,39.9,38.0,30.09,ENE,58,1.0,2.0,93,0.00,,,0.14,Wunderground v.1.15,2013-04-09 08:22:00,
2013-04-09 04:23:00,39.9,38.0,30.09,ENE,58,0.0,2.0,93,0.00,,,0.14,Wunderground v.1.15,2013-04-09 08:23:00,
2013-04-09 04:25:00,39.9,38.0,30.09,SE,132,1.0,2.0,93,0.00,,,0.14,Wunderground v.1.15,2013-04-09 08:25:00,
2013-04-09 04:27:00,39.8,37.9,30.10,NNE,23,1.0,3.0,93,0.00,,,0.14,Wunderground v.1.15,2013-04-09 08:27:00,
2013-04-09 04:28:00,39.8,37.9,30.10,NNE,23,1.0,3.0,93,0.00,,,0.14,Wunderground v.1.15,2013-04-09 08:28:00,
2013-04-09 04:31:00,39.8,37.9,30.10,NNE,20,1.0,3.0,93,0.00,,,0.14,Wunderground v.1.15,2013-04-09 08:31:00,
2013-04-09 04:33:00,39.8,37.9,30.09,NNW,329,1.0,3.0,93,0.00,,,0.14,Wunderground v.1.15,2013-04-09 08:33:00,
2013-04-09 04:37:00,39.7,38.1,30.10,North,359,1.0,3.0,94,0.00,,,0.14,Wunderground v.1.15,2013-04-09 08:37:00,
2013-04-09 04:38:00,39.7,38.1,30.10,WNW,301,0.0,3.0,94,0.00,,,0.14,Wunderground v.1.15,2013-04-09 08:38:00,
2013-04-09 04:39:00,39.7,38.1,30.10,WNW,301,0.0,3.0,94,0.00,,,0.14,Wunderground v.1.15,2013-04-09 08:39:00,
2013-04-09 04:42:00,39.7,38.1,30.10,North,5,1.0,2.0,94,0.00,,,0.14,Wunderground v.1.15,2013-04-09 08:42:00,
2013-04-09 04:43:00,39.7,38.1,30.10,North,5,0.0,2.0,94,0.00,,,0.14,Wunderground v.1.15,2013-04-09 08:43:00,
2013-04-09 04:45:00,39.7,38.1,30.10,North,5,0.0,2.0,94,0.00,,,0.14,Wunderground v.1.15,2013-04-09 08:45:00,
2013-04-09 04:47:00,39.7,38.1,30.10,ENE,62,1.0,2.0,94,0.00,,,0.14,Wunderground v.1.15,2013-04-09 08:47:00,
2013-04-09 04:48:00,39.7,38.1,30.10,ENE,62,0.0,2.0,94,0.00,,,0.14,Wunderground v.1.15,2013-04-09 08:48:00,
2013-04-09 04:50:00,39.7,38.1,30.10,ENE,63,0.0,0.0,94,0.00,,,0.14,Wunderground v.1.15,2013-04-09 08:50:00,
2013-04-09 04:53:00,39.6,38.0,30.10,NE,41,2.0,5.0,94,0.00,,,0.14,Wunderground v.1.15,2013-04-09 08:53:00,
2013-04-09 04:54:00,39.6,38.0,30.10,NE,46,0.0,5.0,94,0.00,,,0.14,Wunderground v.1.15,2013-04-09 08:54:00,
2013-04-09 04:55:00,39.6,38.0,30.10,NE,46,0.0,5.0,94,0.00,,,0.14,Wunderground v.1.15,2013-04-09 08:55:00,
2013-04-09 04:58:00,39.6,38.0,30.10,North,352,1.0,5.0,94,0.00,,,0.14,Wunderground v.1.15,2013-04-09 08:58:00,
2013-04-09 04:59:00,39.6,38.0,30.10,North,10,2.0,5.0,94,0.00,,,0.14,Wunderground v.1.15,2013-04-09 08:59:00,
2013-04-09 05:00:00,39.6,38.0,30.10,NNE,29,1.0,5.0,94,0.00,,,0.14,Wunderground v.1.15,2013-04-09 09:00:00,
2013-04-09 05:02:00,39.5,37.9,30.10,NNE,29,0.0,1.0,94,0.00,,,0.14,Wunderground v.1.15,2013-04-09 09:02:00,
2013-04-09 05:03:00,39.6,38.0,30.10,NNE,29,0.0,1.0,94,0.00,,,0.14,Wunderground v.1.15,2013-04-09 09:03:00,
2013-04-09 05:05:00,39.5,37.9,30.10,North,6,3.0,3.0,94,0.00,,,0.14,Wunderground v.1.15,2013-04-09 09:05:00,
2013-04-09 05:07:00,39.5,37.9,30.10,North,6,1.0,3.0,94,0.00,,,0.14,Wunderground v.1.15,2013-04-09 09:07:00,
2013-04-09 05:10:00,39.4,37.8,30.10,NE,34,0.0,0.0,94,0.00,,,0.14,Wunderground v.1.15,2013-04-09 09:10:00,
2013-04-09 05:11:00,39.4,37.8,30.10,NE,34,0.0,0.0,94,0.00,,,0.14,Wunderground v.1.15,2013-04-09 09:11:00,
2013-04-09 05:12:00,39.4,37.8,30.10,NE,34,0.0,0.0,94,0.00,,,0.14,Wunderground v.1.15,2013-04-09 09:12:00,
2013-04-09 05:15:00,39.4,37.8,30.10,NE,34,0.0,0.0,94,0.00,,,0.14,Wunderground v.1.15,2013-04-09 09:15:00,
2013-04-09 05:16:00,39.3,37.7,30.10,NE,34,0.0,0.0,94,0.00,,,0.14,Wunderground v.1.15,2013-04-09 09:16:00,
2013-04-09 05:17:00,39.3,37.7,30.10,NW,322,0.0,1.0,94,0.00,,,0.14,Wunderground v.1.15,2013-04-09 09:17:00,
2013-04-09 05:20:00,39.3,37.7,30.10,NW,321,0.0,0.0,94,0.00,,,0.14,Wunderground v.1.15,2013-04-09 09:20:00,
2013-04-09 05:22:00,39.3,37.7,30.11,NW,314,0.0,2.0,94,0.00,,,0.14,Wunderground v.1.15,2013-04-09 09:22:00,
2013-04-09 05:25:00,39.3,37.7,30.10,NNE,13,0.0,2.0,94,0.00,,,0.14,Wunderground v.1.15,2013-04-09 09:25:00,
2013-04-09 05:27:00,39.2,37.6,30.10,NNE,13,0.0,2.0,94,0.00,,,0.14,Wunderground v.1.15,2013-04-09 09:27:00,
2013-04-09 05:30:00,39.2,37.6,30.11,NNE,13,0.0,0.0,94,0.00,,,0.14,Wunderground v.1.15,2013-04-09 09:30:00,
2013-04-09 05:32:00,39.2,37.6,30.11,NE,44,1.0,2.0,94,0.00,,,0.14,Wunderground v.1.15,2013-04-09 09:32:00,
2013-04-09 05:33:00,39.2,37.6,30.11,NE,38,1.0,2.0,94,0.00,,,0.14,Wunderground v.1.15,2013-04-09 09:33:00,
2013-04-09 05:36:00,39.2,37.6,30.11,NNW,336,1.0,2.0,94,0.00,,,0.14,Wunderground v.1.15,2013-04-09 09:36:00,
2013-04-09 05:37:00,39.2,37.6,30.11,NNE,13,2.0,2.0,94,0.00,,,0.14,Wunderground v.1.15,2013-04-09 09:37:00,
2013-04-09 05:38:00,39.2,37.6,30.11,NNE,16,3.0,3.0,94,0.00,,,0.14,Wunderground v.1.15,2013-04-09 09:38:00,
2013-04-09 05:41:00,39.2,37.6,30.11,ENE,57,0.0,1.0,94,0.00,,,0.14,Wunderground v.1.15,2013-04-09 09:41:00,
2013-04-09 05:42:00,39.1,37.5,30.11,NE,36,0.0,1.0,94,0.00,,,0.14,Wunderground v.1.15,2013-04-09 09:42:00,
2013-04-09 05:44:00,39.1,37.5,30.11,NW,316,0.0,1.0,94,0.00,,,0.14,Wunderground v.1.15,2013-04-09 09:44:00,
2013-04-09 05:46:00,39.1,37.5,30.11,North,349,0.0,1.0,94,0.00,,,0.00,Wunderground v.1.15,2013-04-09 09:46:00,
2013-04-09 05:48:00,39.1,37.5,30.11,North,349,0.0,1.0,94,0.00,,,0.00,Wunderground v.1.15,2013-04-09 09:48:00,
2013-04-09 05:50:00,39.1,37.5,30.12,North,8,0.0,1.0,94,0.00,,,0.00,Wunderground v.1.15,2013-04-09 09:50:00,
2013-04-09 05:52:00,39.1,37.5,30.12,West,269,0.0,1.0,94,0.00,,,0.00,Wunderground v.1.15,2013-04-09 09:52:00,
2013-04-09 05:53:00,39.0,37.4,30.12,West,270,0.0,1.0,94,0.00,,,0.00,Wunderground v.1.15,2013-04-09 09:53:00,
2013-04-09 05:55:00,39.0,37.4,30.12,West,270,0.0,1.0,94,0.00,,,0.00,Wunderground v.1.15,2013-04-09 09:55:00,
2013-04-09 05:57:00,39.0,37.4,30.12,WNW,285,0.0,1.0,94,0.00,,,0.00,Wunderground v.1.15,2013-04-09 09:57:00,
2013-04-09 05:58:00,39.0,37.4,30.12,WNW,285,0.0,1.0,94,0.00,,,0.00,Wunderground v.1.15,2013-04-09 09:58:00,
2013-04-09 06:01:00,38.9,37.3,30.12,WNW,285,0.0,0.0,94,0.00,,,0.00,Wunderground v.1.15,2013-04-09 10:01:00,
2013-04-09 06:02:00,38.9,37.3,30.13,WNW,285,0.0,0.0,94,0.00,,,0.00,Wunderground v.1.15,2013-04-09 10:02:00,
2013-04-09 06:03:00,38.9,37.3,30.13,WNW,285,0.0,0.0,94,0.00,,,0.00,Wunderground v.1.15,2013-04-09 10:03:00,
2013-04-09 06:04:00,38.9,37.3,30.13,WNW,285,0.0,0.0,94,0.00,,,0.00,Wunderground v.1.15,2013-04-09 10:04:00,
2013-04-09 06:06:00,38.9,37.3,30.13,WNW,285,0.0,0.0,94,0.00,,,0.00,Wunderground v.1.15,2013-04-09 10:06:00,
2013-04-09 06:08:00,38.9,37.6,30.13,WNW,285,0.0,0.0,95,0.00,,,0.00,Wunderground v.1.15,2013-04-09 10:08:00,
2013-04-09 06:09:00,38.9,37.6,30.13,WNW,285,0.0,0.0,95,0.00,,,0.00,Wunderground v.1.15,2013-04-09 10:09:00,
2013-04-09 06:12:00,38.9,37.6,30.13,WNW,285,0.0,0.0,95,0.00,,,0.00,Wunderground v.1.15,2013-04-09 10:12:00,
2013-04-09 06:13:00,38.9,37.6,30.13,WNW,285,0.0,0.0,95,0.00,,,0.00,Wunderground v.1.15,2013-04-09 10:13:00,
2013-04-09 06:14:00,38.9,37.6,30.13,WNW,285,0.0,0.0,95,0.00,,,0.00,Wunderground v.1.15,2013-04-09 10:14:00,
2013-04-09 06:17:00,38.9,37.6,30.14,WNW,285,0.0,0.0,95,0.00,,,0.00,Wunderground v.1.15,2013-04-09 10:17:00,
2013-04-09 06:18:00,38.9,37.6,30.14,WNW,285,0.0,0.0,95,0.00,,,0.00,Wunderground v.1.15,2013-04-09 10:18:00,
2013-04-09 06:19:00,38.9,37.6,30.14,WNW,285,0.0,0.0,95,0.00,,,0.00,Wunderground v.1.15,2013-04-09 10:19:00,
2013-04-09 06:22:00,38.9,37.6,30.14,WNW,285,0.0,0.0,95,0.00,,,0.00,Wunderground v.1.15,2013-04-09 10:22:00,
2013-04-09 06:23:00,38.9,37.6,30.14,WNW,285,0.0,0.0,95,0.00,,,0.00,Wunderground v.1.15,2013-04-09 10:23:00,
2013-04-09 06:24:00,38.9,37.6,30.14,WNW,285,0.0,0.0,95,0.00,,,0.00,Wunderground v.1.15,2013-04-09 10:24:00,
2013-04-09 06:28:00,38.9,37.6,30.14,WNW,285,0.0,1.0,95,0.00,,,0.00,Wunderground v.1.15,2013-04-09 10:28:00,
2013-04-09 06:30:00,38.8,37.5,30.14,WNW,298,0.0,1.0,95,0.00,,,0.00,Wunderground v.1.15,2013-04-09 10:30:00,
2013-04-09 06:33:00,38.8,37.5,30.14,WNW,298,0.0,1.0,95,0.00,,,0.00,Wunderground v.1.15,2013-04-09 10:33:00,
2013-04-09 06:35:00,38.8,37.5,30.14,WNW,297,0.0,1.0,95,0.00,,,0.00,Wunderground v.1.15,2013-04-09 10:35:00,
2013-04-09 06:38:00,38.8,37.5,30.14,WNW,297,0.0,1.0,95,0.00,,,0.00,Wunderground v.1.15,2013-04-09 10:38:00,
2013-04-09 06:40:00,38.8,37.5,30.14,WNW,298,0.0,0.0,95,0.00,,,0.00,Wunderground v.1.15,2013-04-09 10:40:00,
2013-04-09 06:43:00,38.8,37.5,30.14,WNW,297,0.0,0.0,95,0.00,,,0.00,Wunderground v.1.15,2013-04-09 10:43:00,
2013-04-09 06:44:00,38.8,37.5,30.14,WNW,298,0.0,0.0,95,0.00,,,0.00,Wunderground v.1.15,2013-04-09 10:44:00,
2013-04-09 06:45:00,38.8,37.5,30.14,WNW,297,0.0,0.0,95,0.00,,,0.00,Wunderground v.1.15,2013-04-09 10:45:00,
2013-04-09 06:49:00,38.8,37.5,30.14,WNW,297,0.0,1.0,95,0.00,,,0.00,Wunderground v.1.15,2013-04-09 10:49:00,
2013-04-09 06:50:00,38.8,37.5,30.14,WNW,298,0.0,0.0,95,0.00,,,0.00,Wunderground v.1.15,2013-04-09 10:50:00,
2013-04-09 06:55:00,38.9,37.6,30.14,East,89,0.0,0.0,95,0.00,,,0.00,Wunderground v.1.15,2013-04-09 10:55:00,
2013-04-09 06:56:00,38.9,37.6,30.14,East,89,1.0,1.0,95,0.00,,,0.00,Wunderground v.1.15,2013-04-09 10:56:00,
2013-04-09 07:00:00,38.9,37.6,30.14,East,89,1.0,1.0,95,0.00,,,0.00,Wunderground v.1.15,2013-04-09 11:00:00,
2013-04-09 07:02:00,38.9,37.6,30.14,East,89,0.0,1.0,95,0.00,,,0.00,Wunderground v.1.15,2013-04-09 11:02:00,
2013-04-09 07:06:00,38.9,37.6,30.14,East,89,0.0,1.0,95,0.00,,,0.00,Wunderground v.1.15,2013-04-09 11:06:00,
2013-04-09 07:07:00,38.9,37.6,30.14,East,89,0.0,1.0,95,0.00,,,0.00,Wunderground v.1.15,2013-04-09 11:07:00,
2013-04-09 07:08:00,38.9,37.6,30.14,East,89,0.0,1.0,95,0.00,,,0.00,Wunderground v.1.15,2013-04-09 11:08:00,
2013-04-09 07:11:00,39.0,37.7,30.14,East,89,0.0,0.0,95,0.00,,,0.00,Wunderground v.1.15,2013-04-09 11:11:00,
2013-04-09 07:12:00,38.9,37.6,30.14,East,89,0.0,0.0,95,0.00,,,0.00,Wunderground v.1.15,2013-04-09 11:12:00,
2013-04-09 07:13:00,38.9,37.6,30.14,East,89,0.0,0.0,95,0.00,,,0.00,Wunderground v.1.15,2013-04-09 11:13:00,
2013-04-09 07:16:00,38.9,37.6,30.14,East,89,0.0,0.0,95,0.00,,,0.00,Wunderground v.1.15,2013-04-09 11:16:00,
2013-04-09 07:17:00,38.9,37.6,30.14,East,90,0.0,0.0,95,0.00,,,0.00,Wunderground v.1.15,2013-04-09 11:17:00,
2013-04-09 07:18:00,38.9,37.6,30.14,SSE,147,0.0,0.0,95,0.00,,,0.00,Wunderground v.1.15,2013-04-09 11:18:00,
2013-04-09 07:22:00,38.9,37.6,30.15,SE,145,1.0,1.0,95,0.00,,,0.00,Wunderground v.1.15,2013-04-09 11:22:00,
2013-04-09 07:23:00,38.9,37.6,30.14,SE,146,0.0,1.0,95,0.00,,,0.00,Wunderground v.1.15,2013-04-09 11:23:00,
2013-04-09 07:27:00,38.9,37.6,30.14,East,83,1.0,2.0,95,0.00,,,0.00,Wunderground v.1.15,2013-04-09 11:27:00,
2013-04-09 07:29:00,38.8,37.5,30.14,East,91,1.0,2.0,95,0.00,,,0.00,Wunderground v.1.15,2013-04-09 11:29:00,
2013-04-09 07:32:00,38.8,37.5,30.14,South,186,0.0,1.0,95,0.00,,,0.00,Wunderground v.1.15,2013-04-09 11:32:00,
2013-04-09 07:34:00,38.8,37.5,30.14,SE,140,0.0,1.0,95,0.00,,,0.00,Wunderground v.1.15,2013-04-09 11:34:00,
2013-04-09 07:37:00,38.9,37.6,30.14,East,94,0.0,2.0,95,0.00,,,0.00,Wunderground v.1.15,2013-04-09 11:37:00,
2013-04-09 07:38:00,38.9,37.6,30.14,East,97,2.0,2.0,95,0.00,,,0.00,Wunderground v.1.15,2013-04-09 11:38:00,
2013-04-09 07:39:00,38.9,37.6,30.14,East,101,0.0,2.0,95,0.00,,,0.00,Wunderground v.1.15,2013-04-09 11:39:00,
2013-04-09 07:42:00,38.9,37.6,30.14,East,96,1.0,3.0,95,0.00,,,0.00,Wunderground v.1.15,2013-04-09 11:42:00,
2013-04-09 07:43:00,39.0,37.7,30.14,East,91,1.0,3.0,95,0.00,,,0.00,Wunderground v.1.15,2013-04-09 11:43:00,
2013-04-09 07:44:00,39.0,37.7,30.14,East,90,0.0,3.0,95,0.00,,,0.00,Wunderground v.1.15,2013-04-09 11:44:00,
2013-04-09 07:47:00,39.0,37.7,30.14,East,89,1.0,3.0,95,0.00,,,0.00,Wunderground v.1.15,2013-04-09 11:47:00,
2013-04-09 07:48:00,39.0,37.7,30.14,East,89,1.0,3.0,95,0.00,,,0.00,Wunderground v.1.15,2013-04-09 11:48:00,
2013-04-09 07:49:00,39.0,37.7,30.14,ENE,75,2.0,3.0,95,0.00,,,0.00,Wunderground v.1.15,2013-04-09 11:49:00,
2013-04-09 07:53:00,39.0,37.7,30.14,ESE,116,0.0,4.0,95,0.00,,,0.00,Wunderground v.1.15,2013-04-09 11:53:00,
2013-04-09 07:54:00,39.0,37.7,30.15,ENE,72,1.0,4.0,95,0.00,,,0.00,Wunderground v.1.15,2013-04-09 11:54:00,
2013-04-09 07:58:00,39.0,37.7,30.15,East,79,0.0,4.0,95,0.00,,,0.00,Wunderground v.1.15,2013-04-09 11:58:00,
2013-04-09 08:00:00,39.1,37.8,30.15,East,91,2.0,2.0,95,0.00,,,0.00,Wunderground v.1.15,2013-04-09 12:00:00,
2013-04-09 08:03:00,39.1,38.1,30.14,East,90,1.0,4.0,96,0.00,,,0.00,Wunderground v.1.15,2013-04-09 12:03:00,
2013-04-09 08:05:00,39.1,38.1,30.14,ENE,64,2.0,4.0,96,0.00,,,0.00,Wunderground v.1.15,2013-04-09 12:05:00,
2013-04-09 08:08:00,39.2,38.2,30.14,East,80,3.0,4.0,96,0.00,,,0.00,Wunderground v.1.15,2013-04-09 12:08:00,
2013-04-09 08:09:00,39.1,38.1,30.14,ENE,71,3.0,4.0,96,0.00,,,0.00,Wunderground v.1.15,2013-04-09 12:09:00,
2013-04-09 08:10:00,39.1,37.8,30.14,ENE,76,2.0,3.0,95,0.00,,,0.00,Wunderground v.1.15,2013-04-09 12:10:00,
2013-04-09 08:13:00,39.1,38.1,30.14,East,87,1.0,3.0,96,0.00,,,0.00,Wunderground v.1.15,2013-04-09 12:13:00,
2013-04-09 08:14:00,39.2,38.2,30.14,East,92,1.0,3.0,96,0.00,,,0.00,Wunderground v.1.15,2013-04-09 12:14:00,
2013-04-09 08:15:00,39.1,38.1,30.14,East,96,1.0,3.0,96,0.00,,,0.00,Wunderground v.1.15,2013-04-09 12:15:00,
2013-04-09 08:18:00,39.3,38.3,30.14,ESE,102,1.0,3.0,96,0.00,,,0.00,Wunderground v.1.15,2013-04-09 12:18:00,
2013-04-09 08:19:00,39.3,38.3,30.14,East,82,1.0,3.0,96,0.00,,,0.00,Wunderground v.1.15,2013-04-09 12:19:00,
2013-04-09 08:20:00,39.4,38.4,30.14,ENE,76,1.0,1.0,96,0.00,,,0.00,Wunderground v.1.15,2013-04-09 12:20:00,
2013-04-09 08:21:00,39.4,38.4,30.14,NE,56,2.0,2.0,96,0.00,,,0.00,Wunderground v.1.15,2013-04-09 12:21:00,
2013-04-09 08:23:00,39.5,38.5,30.14,East,80,1.0,2.0,96,0.00,,,0.00,Wunderground v.1.15,2013-04-09 12:23:00,
2013-04-09 08:25:00,39.5,38.5,30.14,East,99,1.0,2.0,96,0.00,,,0.00,Wunderground v.1.15,2013-04-09 12:25:00,
2013-04-09 08:26:00,39.6,38.6,30.15,NE,45,2.0,3.0,96,0.00,,,0.00,Wunderground v.1.15,2013-04-09 12:26:00,
2013-04-09 08:28:00,39.6,38.6,30.15,ENE,77,2.0,3.0,96,0.00,,,0.00,Wunderground v.1.15,2013-04-09 12:28:00,
2013-04-09 08:30:00,39.6,38.6,30.15,ENE,70,3.0,5.0,96,0.00,,,0.00,Wunderground v.1.15,2013-04-09 12:30:00,
2013-04-09 08:32:00,39.6,38.6,30.15,ENE,76,2.0,5.0,96,0.00,,,0.00,Wunderground v.1.15,2013-04-09 12:32:00,
2013-04-09 08:34:00,39.6,38.6,30.15,East,80,3.0,5.0,96,0.00,,,0.00,Wunderground v.1.15,2013-04-09 12:34:00,
2013-04-09 08:36:00,39.6,38.6,30.15,ENE,78,2.0,5.0,96,0.00,,,0.00,Wunderground v.1.15,2013-04-09 12:36:00,
2013-04-09 08:37:00,39.6,38.6,30.14,NE,51,1.0,5.0,96,0.00,,,0.00,Wunderground v.1.15,2013-04-09 12:37:00,
2013-04-09 08:39:00,39.6,38.6,30.14,SE,127,0.0,5.0,96,0.00,,,0.00,Wunderground v.1.15,2013-04-09 12:39:00,
2013-04-09 08:41:00,39.7,38.7,30.14,East,84,2.0,2.0,96,0.00,,,0.00,Wunderground v.1.15,2013-04-09 12:41:00,
2013-04-09 08:42:00,39.7,38.7,30.15,SE,134,0.0,2.0,96,0.00,,,0.00,Wunderground v.1.15,2013-04-09 12:42:00,
2013-04-09 08:43:00,39.7,38.7,30.15,East,92,1.0,2.0,96,0.00,,,0.00,Wunderground v.1.15,2013-04-09 12:43:00,
2013-04-09 08:44:00,39.8,38.8,30.15,South,179,1.0,3.0,96,0.00,,,0.00,Wunderground v.1.15,2013-04-09 12:44:00,
2013-04-09 08:47:00,39.9,38.9,30.15,ENE,68,2.0,3.0,96,0.00,,,0.00,Wunderground v.1.15,2013-04-09 12:47:00,
2013-04-09 08:48:00,39.9,38.9,30.14,ESE,112,2.0,3.0,96,0.00,,,0.00,Wunderground v.1.15,2013-04-09 12:48:00,
2013-04-09 08:50:00,39.9,38.9,30.14,East,83,1.0,3.0,96,0.00,,,0.00,Wunderground v.1.15,2013-04-09 12:50:00,
2013-04-09 08:52:00,40.0,39.0,30.14,East,83,2.0,3.0,96,0.00,,,0.00,Wunderground v.1.15,2013-04-09 12:52:00,
2013-04-09 08:53:00,40.0,39.0,30.14,East,83,2.0,3.0,96,0.00,,,0.00,Wunderground v.1.15,2013-04-09 12:53:00,
2013-04-09 08:55:00,40.0,39.0,30.14,East,96,3.0,4.0,96,0.00,,,0.00,Wunderground v.1.15,2013-04-09 12:55:00,
2013-04-09 08:57:00,40.0,38.7,30.14,East,86,2.0,5.0,95,0.00,,,0.00,Wunderground v.1.15,2013-04-09 12:57:00,
2013-04-09 08:58:00,40.0,38.7,30.14,ENE,77,2.0,5.0,95,0.00,,,0.00,Wunderground v.1.15,2013-04-09 12:58:00,
2013-04-09 09:00:00,40.1,38.8,30.14,ENE,72,3.0,3.0,95,0.00,,,0.00,Wunderground v.1.15,2013-04-09 13:00:00,
2013-04-09 09:02:00,40.1,38.8,30.14,SSE,162,2.0,3.0,95,0.00,,,0.00,Wunderground v.1.15,2013-04-09 13:02:00,
2013-04-09 09:03:00,40.1,38.8,30.14,ESE,119,0.0,3.0,95,0.00,,,0.00,Wunderground v.1.15,2013-04-09 13:03:00,
2013-04-09 09:04:00,40.1,38.8,30.14,ESE,118,1.0,3.0,95,0.00,,,0.00,Wunderground v.1.15,2013-04-09 13:04:00,
2013-04-09 09:05:00,40.2,39.2,30.14,NNE,26,1.0,3.0,96,0.00,,,0.00,Wunderground v.1.15,2013-04-09 13:05:00,
2013-04-09 09:07:00,40.3,39.3,30.14,East,96,2.0,4.0,96,0.00,,,0.00,Wunderground v.1.15,2013-04-09 13:07:00,
2013-04-09 09:09:00,40.3,39.3,30.14,ENE,77,1.0,4.0,96,0.00,,,0.00,Wunderground v.1.15,2013-04-09 13:09:00,
2013-04-09 09:11:00,40.4,39.1,30.14,ENE,69,2.0,2.0,95,0.00,,,0.00,Wunderground v.1.15,2013-04-09 13:11:00,
2013-04-09 09:13:00,40.4,39.1,30.13,East,97,2.0,3.0,95,0.00,,,0.00,Wunderground v.1.15,2013-04-09 13:13:00,
2013-04-09 09:14:00,40.4,39.1,30.13,East,98,1.0,3.0,95,0.00,,,0.00,Wunderground v.1.15,2013-04-09 13:14:00,
2013-04-09 09:15:00,40.4,39.1,30.13,East,94,2.0,3.0,95,0.00,,,0.00,Wunderground v.1.15,2013-04-09 13:15:00,
2013-04-09 09:16:00,40.4,39.1,30.13,East,94,2.0,3.0,95,0.00,,,0.00,Wunderground v.1.15,2013-04-09 13:16:00,
2013-04-09 09:18:00,40.4,39.1,30.13,SE,131,1.0,3.0,95,0.00,,,0.00,Wunderground v.1.15,2013-04-09 13:18:00,
2013-04-09 09:19:00,40.5,39.2,30.13,SE,142,1.0,3.0,95,0.00,,,0.00,Wunderground v.1.15,2013-04-09 13:19:00,
2013-04-09 09:20:00,40.6,39.3,30.13,ENE,65,1.0,1.0,95,0.00,,,0.00,Wunderground v.1.15,2013-04-09 13:20:00,
2013-04-09 09:21:00,40.6,39.3,30.13,ENE,69,3.0,3.0,95,0.00,,,0.00,Wunderground v.1.15,2013-04-09 13:21:00,
2013-04-09 09:23:00,40.6,39.3,30.13,ENE,71,2.0,3.0,95,0.00,,,0.00,Wunderground v.1.15,2013-04-09 13:23:00,
2013-04-09 09:25:00,40.7,39.4,30.12,ENE,62,0.0,3.0,95,0.00,,,0.00,Wunderground v.1.15,2013-04-09 13:25:00,
2013-04-09 09:26:00,40.7,39.4,30.12,East,79,2.0,3.0,95,0.00,,,0.00,Wunderground v.1.15,2013-04-09 13:26:00,
2013-04-09 09:28:00,40.8,39.5,30.12,SSE,162,0.0,3.0,95,0.00,,,0.00,Wunderground v.1.15,2013-04-09 13:28:00,
2013-04-09 09:30:00,40.8,39.5,30.12,ENE,72,0.0,1.0,95,0.00,,,0.00,Wunderground v.1.15,2013-04-09 13:30:00,
2013-04-09 09:31:00,40.9,39.6,30.12,SE,133,3.0,3.0,95,0.00,,,0.00,Wunderground v.1.15,2013-04-09 13:31:00,
2013-04-09 09:33:00,40.9,39.6,30.12,ESE,111,4.0,4.0,95,0.00,,,0.00,Wunderground v.1.15,2013-04-09 13:33:00,
2013-04-09 09:35:00,41.0,39.7,30.12,SSW,198,2.0,5.0,95,0.00,,,0.00,Wunderground v.1.15,2013-04-09 13:35:00,
2013-04-09 09:37:00,41.0,39.7,30.12,East,95,1.0,5.0,95,0.00,,,0.00,Wunderground v.1.15,2013-04-09 13:37:00,
2013-04-09 09:38:00,41.0,39.7,30.12,ESE,102,3.0,5.0,95,0.00,,,0.00,Wunderground v.1.15,2013-04-09 13:38:00,
2013-04-09 09:40:00,41.0,39.7,30.12,SE,136,1.0,2.0,95,0.00,,,0.00,Wunderground v.1.15,2013-04-09 13:40:00,
2013-04-09 09:42:00,41.0,39.7,30.12,SSE,162,2.0,5.0,95,0.00,,,0.00,Wunderground v.1.15,2013-04-09 13:42:00,
2013-04-09 09:43:00,41.0,39.7,30.13,SW,229,1.0,5.0,95,0.00,,,0.00,Wunderground v.1.15,2013-04-09 13:43:00,
2013-04-09 09:45:00,41.2,39.9,30.13,SW,221,1.0,5.0,95,0.00,,,0.00,Wunderground v.1.15,2013-04-09 13:45:00,
2013-04-09 09:47:00,41.2,39.9,30.13,SE,145,1.0,5.0,95,0.00,,,0.00,Wunderground v.1.15,2013-04-09 13:47:00,
2013-04-09 09:49:00,41.3,40.0,30.13,SE,146,0.0,5.0,95,0.00,,,0.00,Wunderground v.1.15,2013-04-09 13:49:00,
2013-04-09 09:50:00,41.4,40.1,30.13,East,98,0.0,1.0,95,0.00,,,0.00,Wunderground v.1.15,2013-04-09 13:50:00,
2013-04-09 09:52:00,41.5,40.2,30.13,South,169,3.0,9.0,95,0.00,,,0.00,Wunderground v.1.15,2013-04-09 13:52:00,
2013-04-09 09:54:00,41.6,40.0,30.13,ESE,121,1.0,9.0,94,0.00,,,0.00,Wunderground v.1.15,2013-04-09 13:54:00,
2013-04-09 09:55:00,41.7,40.1,30.12,SW,229,1.0,9.0,94,0.00,,,0.00,Wunderground v.1.15,2013-04-09 13:55:00,
2013-04-09 09:57:00,41.8,40.2,30.12,East,101,2.0,9.0,94,0.00,,,0.00,Wunderground v.1.15,2013-04-09 13:57:00,
2013-04-09 09:58:00,41.9,40.3,30.12,East,96,1.0,9.0,94,0.00,,,0.00,Wunderground v.1.15,2013-04-09 13:58:00,
2013-04-09 09:59:00,41.9,40.3,30.12,NE,43,1.0,9.0,94,0.00,,,0.00,Wunderground v.1.15,2013-04-09 13:59:00,
2013-04-09 10:01:00,41.9,40.3,30.12,East,94,2.0,3.0,94,0.00,,,0.00,Wunderground v.1.15,2013-04-09 14:01:00,
2013-04-09 10:02:00,41.9,40.3,30.12,ENE,75,0.0,3.0,94,0.00,,,0.00,Wunderground v.1.15,2013-04-09 14:02:00,
2013-04-09 10:03:00,42.0,40.4,30.11,SE,134,0.0,3.0,94,0.00,,,0.00,Wunderground v.1.15,2013-04-09 14:03:00,
2013-04-09 10:04:00,42.0,40.4,30.12,SSE,155,1.0,3.0,94,0.00,,,0.00,Wunderground v.1.15,2013-04-09 14:04:00,
2013-04-09 10:07:00,42.1,40.5,30.11,East,91,1.0,3.0,94,0.00,,,0.00,Wunderground v.1.15,2013-04-09 14:07:00,
2013-04-09 10:08:00,42.2,40.6,30.11,ENE,72,2.0,3.0,94,0.00,,,0.00,Wunderground v.1.15,2013-04-09 14:08:00,
2013-04-09 10:09:00,42.2,40.3,30.11,ENE,73,1.0,3.0,93,0.00,,,0.00,Wunderground v.1.15,2013-04-09 14:09:00,
2013-04-09 10:12:00,42.3,40.4,30.11,South,177,4.0,5.0,93,0.00,,,0.00,Wunderground v.1.15,2013-04-09 14:12:00,
2013-04-09 10:13:00,42.3,40.4,30.11,NE,49,1.0,5.0,93,0.00,,,0.00,Wunderground v.1.15,2013-04-09 14:13:00,
2013-04-09 10:15:00,42.3,40.4,30.11,ENE,62,2.0,5.0,93,0.00,,,0.00,Wunderground v.1.15,2013-04-09 14:15:00,
2013-04-09 10:17:00,42.4,40.5,30.12,WSW,245,1.0,5.0,93,0.00,,,0.00,Wunderground v.1.15,2013-04-09 14:17:00,
2013-04-09 10:18:00,42.5,40.6,30.12,SE,124,3.0,5.0,93,0.00,,,0.00,Wunderground v.1.15,2013-04-09 14:18:00,
2013-04-09 10:19:00,42.5,40.6,30.12,ESE,119,2.0,5.0,93,0.00,,,0.00,Wunderground v.1.15,2013-04-09 14:19:00,
2013-04-09 10:20:00,42.5,40.3,30.12,East,84,0.0,2.0,92,0.00,,,0.00,Wunderground v.1.15,2013-04-09 14:20:00,
2013-04-09 10:22:00,42.6,40.7,30.12,East,101,1.0,2.0,93,0.00,,,0.00,Wunderground v.1.15,2013-04-09 14:22:00,
2013-04-09 10:23:00,42.8,40.9,30.12,East,89,0.0,2.0,93,0.00,,,0.00,Wunderground v.1.15,2013-04-09 14:23:00,
2013-04-09 10:24:00,42.9,41.0,30.12,ENE,78,1.0,2.0,93,0.00,,,0.00,Wunderground v.1.15,2013-04-09 14:24:00,
2013-04-09 10:25:00,43.0,41.1,30.12,ENE,72,1.0,2.0,93,0.00,,,0.00,Wunderground v.1.15,2013-04-09 14:25:00,
2013-04-09 10:27:00,43.1,40.9,30.12,East,87,1.0,2.0,92,0.00,,,0.00,Wunderground v.1.15,2013-04-09 14:27:00,
2013-04-09 10:29:00,43.2,41.0,30.12,SW,214,1.0,4.0,92,0.00,,,0.00,Wunderground v.1.15,2013-04-09 14:29:00,
2013-04-09 10:30:00,43.2,41.0,30.12,ENE,62,2.0,2.0,92,0.00,,,0.00,Wunderground v.1.15,2013-04-09 14:30:00,
2013-04-09 10:32:00,43.4,41.2,30.12,East,91,0.0,3.0,92,0.00,,,0.00,Wunderground v.1.15,2013-04-09 14:32:00,
2013-04-09 10:34:00,43.6,41.4,30.12,ENE,70,1.0,3.0,92,0.00,,,0.00,Wunderground v.1.15,2013-04-09 14:34:00,
2013-04-09 10:35:00,43.7,41.5,30.12,East,85,2.0,4.0,92,0.00,,,0.00,Wunderground v.1.15,2013-04-09 14:35:00,
2013-04-09 10:38:00,43.8,41.3,30.12,SSW,211,2.0,4.0,91,0.00,,,0.00,Wunderground v.1.15,2013-04-09 14:38:00,
2013-04-09 10:40:00,44.0,41.5,30.12,WNW,290,2.0,5.0,91,0.00,,,0.00,Wunderground v.1.15,2013-04-09 14:40:00,
2013-04-09 10:41:00,44.1,41.6,30.12,WSW,243,2.0,3.0,91,0.00,,,0.00,Wunderground v.1.15,2013-04-09 14:41:00,
2013-04-09 10:43:00,44.5,42.0,30.13,South,191,1.0,3.0,91,0.00,,,0.00,Wunderground v.1.15,2013-04-09 14:43:00,
2013-04-09 10:45:00,44.8,42.0,30.12,East,96,4.0,4.0,90,0.00,,,0.00,Wunderground v.1.15,2013-04-09 14:45:00,
2013-04-09 10:46:00,44.8,41.8,30.12,ENE,77,4.0,4.0,89,0.00,,,0.00,Wunderground v.1.15,2013-04-09 14:46:00,
2013-04-09 10:49:00,44.9,41.9,30.12,SSW,193,3.0,5.0,89,0.00,,,0.00,Wunderground v.1.15,2013-04-09 14:49:00,
2013-04-09 10:50:00,44.9,41.9,30.12,South,173,1.0,2.0,89,0.00,,,0.00,Wunderground v.1.15,2013-04-09 14:50:00,
2013-04-09 10:51:00,45.0,42.0,30.12,WSW,240,2.0,4.0,89,0.00,,,0.00,Wunderground v.1.15,2013-04-09 14:51:00,
2013-04-09 10:55:00,45.5,42.2,30.12,SSE,165,3.0,8.0,88,0.00,,,0.00,Wunderground v.1.15,2013-04-09 14:55:00,
2013-04-09 10:56:00,45.7,42.1,30.12,SW,228,2.0,8.0,87,0.00,,,0.00,Wunderground v.1.15,2013-04-09 14:56:00,
2013-04-09 11:00:00,46.3,42.6,30.12,SSE,159,4.0,4.0,87,0.00,,,0.00,Wunderground v.1.15,2013-04-09 15:00:00,
2013-04-09 11:02:00,46.5,42.2,30.12,ESE,109,1.0,4.0,85,0.00,,,0.00,Wunderground v.1.15,2013-04-09 15:02:00,
2013-04-09 11:05:00,46.9,42.6,30.12,ESE,106,0.0,4.0,85,0.00,,,0.00,Wunderground v.1.15,2013-04-09 15:05:00,
2013-04-09 11:06:00,47.1,42.8,30.12,East,96,2.0,4.0,85,0.00,,,0.00,Wunderground v.1.15,2013-04-09 15:06:00,
2013-04-09 11:07:00,47.1,42.8,30.12,East,86,1.0,4.0,85,0.00,,,0.00,Wunderground v.1.15,2013-04-09 15:07:00,
2013-04-09 11:10:00,47.8,42.9,30.13,South,177,3.0,3.0,83,0.00,,,0.00,Wunderground v.1.15,2013-04-09 15:10:00,
2013-04-09 11:12:00,47.9,43.0,30.13,SW,219,4.0,4.0,83,0.00,,,0.00,Wunderground v.1.15,2013-04-09 15:12:00,
2013-04-09 11:13:00,47.9,42.3,30.13,SSE,165,2.0,5.0,81,0.00,,,0.00,Wunderground v.1.15,2013-04-09 15:13:00,
2013-04-09 11:15:00,47.8,41.9,30.13,ESE,122,2.0,8.0,80,0.00,,,0.00,Wunderground v.1.15,2013-04-09 15:15:00,
2013-04-09 11:17:00,47.7,41.8,30.13,South,190,0.0,8.0,80,0.00,,,0.00,Wunderground v.1.15,2013-04-09 15:17:00,
2013-04-09 11:18:00,47.7,42.2,30.13,WSW,251,1.0,8.0,81,0.00,,,0.00,Wunderground v.1.15,2013-04-09 15:18:00,
2013-04-09 11:19:00,47.7,42.2,30.13,ESE,106,2.0,8.0,81,0.00,,,0.00,Wunderground v.1.15,2013-04-09 15:19:00,
2013-04-09 11:21:00,47.7,42.2,30.13,ESE,111,2.0,3.0,81,0.00,,,0.00,Wunderground v.1.15,2013-04-09 15:21:00,
2013-04-09 11:22:00,47.7,42.2,30.13,ESE,108,1.0,3.0,81,0.00,,,0.00,Wunderground v.1.15,2013-04-09 15:22:00,
2013-04-09 11:23:00,47.8,42.3,30.13,ENE,77,1.0,3.0,81,0.00,,,0.00,Wunderground v.1.15,2013-04-09 15:23:00,
2013-04-09 11:24:00,47.7,42.2,30.13,West,274,1.0,3.0,81,0.00,,,0.00,Wunderground v.1.15,2013-04-09 15:24:00,
2013-04-09 11:27:00,47.7,42.2,30.13,SSW,193,3.0,5.0,81,0.00,,,0.00,Wunderground v.1.15,2013-04-09 15:27:00,
2013-04-09 11:30:00,47.9,42.3,30.13,NW,310,2.0,5.0,81,0.00,,,0.00,Wunderground v.1.15,2013-04-09 15:30:00,
2013-04-09 11:32:00,48.2,42.6,30.13,SSE,152,1.0,5.0,81,0.00,,,0.00,Wunderground v.1.15,2013-04-09 15:32:00,
2013-04-09 11:35:00,48.4,42.5,30.13,SW,232,1.0,5.0,80,0.00,,,0.00,Wunderground v.1.15,2013-04-09 15:35:00,
2013-04-09 11:37:00,48.4,42.2,30.12,SSW,210,3.0,9.0,79,0.00,,,0.00,Wunderground v.1.15,2013-04-09 15:37:00,
2013-04-09 11:40:00,48.3,42.1,30.12,SSE,162,2.0,3.0,79,0.00,,,0.00,Wunderground v.1.15,2013-04-09 15:40:00,
2013-04-09 11:42:00,48.3,42.1,30.12,SSW,193,2.0,8.0,79,0.00,,,0.00,Wunderground v.1.15,2013-04-09 15:42:00,
2013-04-09 11:43:00,48.3,42.1,30.12,SSE,162,3.0,8.0,79,0.00,,,0.00,Wunderground v.1.15,2013-04-09 15:43:00,
2013-04-09 11:45:00,48.3,42.1,30.12,East,101,1.0,8.0,79,0.00,,,0.00,Wunderground v.1.15,2013-04-09 15:45:00,
2013-04-09 11:47:00,48.2,42.0,30.12,WSW,239,2.0,8.0,79,0.00,,,0.00,Wunderground v.1.15,2013-04-09 15:47:00,
2013-04-09 11:48:00,48.2,42.0,30.12,WSW,239,1.0,8.0,79,0.00,,,0.00,Wunderground v.1.15,2013-04-09 15:48:00,
2013-04-09 11:50:00,48.1,41.9,30.12,SE,143,3.0,4.0,79,0.00,,,0.00,Wunderground v.1.15,2013-04-09 15:50:00,
2013-04-09 11:52:00,47.9,41.7,30.12,SE,143,1.0,4.0,79,0.00,,,0.00,Wunderground v.1.15,2013-04-09 15:52:00,
2013-04-09 11:53:00,47.8,41.6,30.12,South,190,2.0,4.0,79,0.00,,,0.00,Wunderground v.1.15,2013-04-09 15:53:00,
2013-04-09 11:55:00,47.6,41.7,30.13,South,180,3.0,5.0,80,0.00,,,0.00,Wunderground v.1.15,2013-04-09 15:55:00,
2013-04-09 11:58:00,47.5,41.6,30.13,SW,225,0.0,6.0,80,0.00,,,0.00,Wunderground v.1.15,2013-04-09 15:58:00,
2013-04-09 12:00:00,47.3,41.4,30.13,ESE,120,1.0,2.0,80,0.00,,,0.00,Wunderground v.1.15,2013-04-09 16:00:00,
2013-04-09 12:01:00,47.3,41.8,30.13,SE,124,2.0,3.0,81,0.00,,,0.00,Wunderground v.1.15,2013-04-09 16:01:00,
2013-04-09 12:03:00,47.2,41.7,30.13,SW,229,1.0,5.0,81,0.00,,,0.00,Wunderground v.1.15,2013-04-09 16:03:00,
2013-04-09 12:06:00,47.0,41.5,30.13,SSE,160,1.0,5.0,81,0.00,,,0.00,Wunderground v.1.15,2013-04-09 16:06:00,
2013-04-09 12:07:00,47.0,41.5,30.13,NNW,334,2.0,5.0,81,0.00,,,0.00,Wunderground v.1.15,2013-04-09 16:07:00,
2013-04-09 12:08:00,47.0,41.5,30.13,ESE,107,4.0,5.0,81,0.00,,,0.00,Wunderground v.1.15,2013-04-09 16:08:00,
2013-04-09 12:12:00,46.8,41.3,30.11,SSE,158,3.0,4.0,81,0.00,,,0.00,Wunderground v.1.15,2013-04-09 16:12:00,
2013-04-09 12:13:00,46.8,41.3,30.11,WNW,285,2.0,4.0,81,0.00,,,0.00,Wunderground v.1.15,2013-04-09 16:13:00,
2013-04-09 12:17:00,46.7,41.5,30.10,ENE,65,2.0,5.0,82,0.00,,,0.00,Wunderground v.1.15,2013-04-09 16:17:00,
2013-04-09 12:18:00,46.6,41.7,30.09,ENE,76,2.0,5.0,83,0.00,,,0.00,Wunderground v.1.15,2013-04-09 16:18:00,
2013-04-09 12:20:00,46.4,41.5,30.08,East,81,0.0,2.0,83,0.00,,,0.01,Wunderground v.1.15,2013-04-09 16:20:00,
2013-04-09 12:22:00,46.2,41.6,30.08,ENE,70,1.0,4.0,84,0.00,,,0.01,Wunderground v.1.15,2013-04-09 16:22:00,
2013-04-09 12:23:00,46.1,41.5,30.07,East,86,2.0,4.0,84,0.00,,,0.01,Wunderground v.1.15,2013-04-09 16:23:00,
2013-04-09 12:25:00,45.9,41.6,30.07,East,96,1.0,4.0,85,0.10,,,0.02,Wunderground v.1.15,2013-04-09 16:25:00,
2013-04-09 12:27:00,45.7,41.8,30.07,East,101,0.0,4.0,86,0.10,,,0.02,Wunderground v.1.15,2013-04-09 16:27:00,
2013-04-09 12:28:00,45.6,41.7,30.07,ESE,117,1.0,4.0,86,0.10,,,0.02,Wunderground v.1.15,2013-04-09 16:28:00,
2013-04-09 12:29:00,45.6,41.7,30.07,ESE,121,0.0,4.0,86,0.10,,,0.02,Wunderground v.1.15,2013-04-09 16:29:00,
2013-04-09 12:30:00,45.5,41.9,30.07,East,79,1.0,1.0,87,0.10,,,0.02,Wunderground v.1.15,2013-04-09 16:30:00,
2013-04-09 12:33:00,45.3,41.7,30.07,ENE,60,1.0,1.0,87,0.07,,,0.02,Wunderground v.1.15,2013-04-09 16:33:00,
2013-04-09 12:34:00,45.3,41.7,30.06,East,80,1.0,1.0,87,0.06,,,0.02,Wunderground v.1.15,2013-04-09 16:34:00,
2013-04-09 12:35:00,45.2,41.9,30.06,East,95,3.0,3.0,88,0.06,,,0.02,Wunderground v.1.15,2013-04-09 16:35:00,
2013-04-09 12:38:00,45.1,41.8,30.06,ESE,111,0.0,3.0,88,0.05,,,0.03,Wunderground v.1.15,2013-04-09 16:38:00,
2013-04-09 12:40:00,45.1,42.1,30.07,ENE,62,0.0,1.0,89,0.05,,,0.03,Wunderground v.1.15,2013-04-09 16:40:00,
2013-04-09 12:43:00,45.1,42.1,30.07,East,94,0.0,4.0,89,0.05,,,0.03,Wunderground v.1.15,2013-04-09 16:43:00,
2013-04-09 12:44:00,45.2,42.2,30.07,East,82,0.0,4.0,89,0.05,,,0.03,Wunderground v.1.15,2013-04-09 16:44:00,
2013-04-09 12:45:00,45.2,42.2,30.07,South,186,1.0,4.0,89,0.05,,,0.03,Wunderground v.1.15,2013-04-09 16:45:00,
2013-04-09 12:48:00,45.2,42.4,30.07,SW,219,0.0,4.0,90,0.05,,,0.03,Wunderground v.1.15,2013-04-09 16:48:00,
2013-04-09 12:49:00,45.2,42.4,30.07,SW,221,0.0,4.0,90,0.05,,,0.03,Wunderground v.1.15,2013-04-09 16:49:00,
2013-04-09 12:50:00,45.3,42.5,30.07,SE,139,3.0,3.0,90,0.04,,,0.03,Wunderground v.1.15,2013-04-09 16:50:00,
2013-04-09 12:51:00,45.2,42.4,30.07,East,89,1.0,3.0,90,0.04,,,0.03,Wunderground v.1.15,2013-04-09 16:51:00,
2013-04-09 12:54:00,45.2,42.2,30.07,ESE,108,0.0,3.0,89,0.00,,,0.03,Wunderground v.1.15,2013-04-09 16:54:00,
2013-04-09 12:55:00,45.1,42.3,30.07,ESE,108,0.0,3.0,90,0.00,,,0.03,Wunderground v.1.15,2013-04-09 16:55:00,
2013-04-09 12:56:00,45.2,42.4,30.07,SE,124,0.0,3.0,90,0.00,,,0.03,Wunderground v.1.15,2013-04-09 16:56:00,
2013-04-09 12:57:00,45.1,42.3,30.07,ENE,62,1.0,3.0,90,0.00,,,0.03,Wunderground v.1.15,2013-04-09 16:57:00,
2013-04-09 12:59:00,45.1,42.3,30.07,SSE,159,2.0,3.0,90,0.00,,,0.03,Wunderground v.1.15,2013-04-09 16:59:00,
2013-04-09 13:01:00,45.0,42.0,30.07,South,181,2.0,4.0,89,0.00,,,0.03,Wunderground v.1.15,2013-04-09 17:01:00,
2013-04-09 13:02:00,45.0,42.0,30.07,SE,127,0.0,4.0,89,0.00,,,0.03,Wunderground v.1.15,2013-04-09 17:02:00,
2013-04-09 13:04:00,44.9,41.9,30.06,SSE,156,0.0,4.0,89,0.00,,,0.03,Wunderground v.1.15,2013-04-09 17:04:00,
2013-04-09 13:07:00,44.7,41.7,30.06,East,91,0.0,4.0,89,0.00,,,0.03,Wunderground v.1.15,2013-04-09 17:07:00,
2013-04-09 13:09:00,44.6,41.6,30.06,ESE,114,0.0,4.0,89,0.00,,,0.03,Wunderground v.1.15,2013-04-09 17:09:00,
2013-04-09 13:12:00,44.5,41.7,30.07,SE,140,0.0,2.0,90,0.00,,,0.03,Wunderground v.1.15,2013-04-09 17:12:00,
2013-04-09 13:13:00,44.5,41.7,30.07,SE,143,0.0,2.0,90,0.00,,,0.03,Wunderground v.1.15,2013-04-09 17:13:00,
2013-04-09 13:14:00,44.5,41.7,30.08,SSE,154,0.0,2.0,90,0.00,,,0.04,Wunderground v.1.15,2013-04-09 17:14:00,
2013-04-09 13:17:00,44.4,41.7,30.08,SSE,153,0.0,2.0,90,0.00,,,0.04,Wunderground v.1.15,2013-04-09 17:17:00,
2013-04-09 13:18:00,44.4,41.7,30.07,ENE,64,2.0,2.0,90,0.00,,,0.04,Wunderground v.1.15,2013-04-09 17:18:00,
2013-04-09 13:20:00,44.3,41.6,30.07,ESE,105,0.0,1.0,90,0.00,,,0.04,Wunderground v.1.15,2013-04-09 17:20:00,
2013-04-09 13:22:00,44.3,41.8,30.07,East,81,1.0,2.0,91,0.09,,,0.05,Wunderground v.1.15,2013-04-09 17:22:00,
2013-04-09 13:23:00,44.3,41.8,30.07,East,79,1.0,2.0,91,0.09,,,0.05,Wunderground v.1.15,2013-04-09 17:23:00,
2013-04-09 13:26:00,44.1,41.6,30.07,East,93,0.0,2.0,91,0.09,,,0.05,Wunderground v.1.15,2013-04-09 17:26:00,
2013-04-09 13:27:00,44.1,41.6,30.07,East,93,0.0,2.0,91,0.08,,,0.05,Wunderground v.1.15,2013-04-09 17:27:00,
2013-04-09 13:28:00,44.1,41.6,30.07,East,97,1.0,2.0,91,0.08,,,0.05,Wunderground v.1.15,2013-04-09 17:28:00,
2013-04-09 13:29:00,44.1,41.6,30.07,ENE,71,1.0,2.0,91,0.07,,,0.05,Wunderground v.1.15,2013-04-09 17:29:00,
2013-04-09 13:31:00,44.1,41.6,30.07,ENE,70,0.0,1.0,91,0.07,,,0.06,Wunderground v.1.15,2013-04-09 17:31:00,
2013-04-09 13:33:00,44.0,41.5,30.07,East,98,1.0,2.0,91,0.07,,,0.06,Wunderground v.1.15,2013-04-09 17:33:00,
2013-04-09 13:34:00,44.0,41.8,30.07,ENE,67,1.0,2.0,92,0.07,,,0.06,Wunderground v.1.15,2013-04-09 17:34:00,
2013-04-09 13:36:00,44.0,41.8,30.07,ENE,67,0.0,2.0,92,0.07,,,0.06,Wunderground v.1.15,2013-04-09 17:36:00,
2013-04-09 13:38:00,44.0,41.8,30.07,East,97,1.0,2.0,92,0.07,,,0.06,Wunderground v.1.15,2013-04-09 17:38:00,
2013-04-09 13:39:00,44.0,41.8,30.07,East,79,1.0,2.0,92,0.06,,,0.06,Wunderground v.1.15,2013-04-09 17:39:00,
2013-04-09 13:41:00,44.0,41.8,30.06,East,79,1.0,1.0,92,0.05,,,0.06,Wunderground v.1.15,2013-04-09 17:41:00,
2013-04-09 13:43:00,44.0,41.8,30.06,ENE,58,1.0,2.0,92,0.04,,,0.07,Wunderground v.1.15,2013-04-09 17:43:00,
2013-04-09 13:45:00,44.0,41.8,30.06,ENE,69,2.0,5.0,92,0.04,,,0.07,Wunderground v.1.15,2013-04-09 17:45:00,
2013-04-09 13:46:00,43.9,41.7,30.06,East,84,1.0,5.0,92,0.04,,,0.07,Wunderground v.1.15,2013-04-09 17:46:00,
2013-04-09 13:50:00,43.7,41.5,30.05,East,80,1.0,2.0,92,0.09,,,0.08,Wunderground v.1.15,2013-04-09 17:50:00,
2013-04-09 13:52:00,43.7,41.8,30.05,ENE,65,1.0,3.0,93,0.09,,,0.08,Wunderground v.1.15,2013-04-09 17:52:00,
2013-04-09 13:55:00,43.7,41.8,30.05,ENE,62,1.0,3.0,93,0.09,,,0.08,Wunderground v.1.15,2013-04-09 17:55:00,
2013-04-09 13:56:00,43.7,41.8,30.05,ENE,60,3.0,4.0,93,0.09,,,0.08,Wunderground v.1.15,2013-04-09 17:56:00,
2013-04-09 13:59:00,43.6,41.7,30.04,East,91,2.0,4.0,93,0.06,,,0.08,Wunderground v.1.15,2013-04-09 17:59:00,
2013-04-09 14:00:00,43.6,41.7,30.04,East,101,3.0,3.0,93,0.06,,,0.08,Wunderground v.1.15,2013-04-09 18:00:00,
2013-04-09 14:01:00,43.6,41.7,30.04,East,91,3.0,3.0,93,0.05,,,0.08,Wunderground v.1.15,2013-04-09 18:01:00,
2013-04-09 14:04:00,43.5,41.6,30.03,East,88,3.0,3.0,93,0.04,,,0.08,Wunderground v.1.15,2013-04-09 18:04:00,
2013-04-09 14:05:00,43.5,41.6,30.03,ENE,72,2.0,4.0,93,0.04,,,0.08,Wunderground v.1.15,2013-04-09 18:05:00,
2013-04-09 14:06:00,43.5,41.6,30.03,ENE,65,2.0,4.0,93,0.00,,,0.08,Wunderground v.1.15,2013-04-09 18:06:00,
2013-04-09 14:07:00,43.5,41.6,30.03,ENE,75,2.0,4.0,93,0.00,,,0.08,Wunderground v.1.15,2013-04-09 18:07:00,
2013-04-09 14:10:00,43.5,41.6,30.03,East,96,2.0,4.0,93,0.00,,,0.08,Wunderground v.1.15,2013-04-09 18:10:00,
2013-04-09 14:12:00,43.5,41.6,30.03,ESE,103,2.0,4.0,93,0.00,,,0.08,Wunderground v.1.15,2013-04-09 18:12:00,
2013-04-09 14:15:00,43.5,41.9,30.03,East,91,2.0,4.0,94,0.00,,,0.08,Wunderground v.1.15,2013-04-09 18:15:00,
2013-04-09 14:17:00,43.4,41.8,30.02,East,101,2.0,4.0,94,0.00,,,0.08,Wunderground v.1.15,2013-04-09 18:17:00,
2013-04-09 14:18:00,43.3,41.7,30.02,East,93,3.0,5.0,94,0.00,,,0.08,Wunderground v.1.15,2013-04-09 18:18:00,
2013-04-09 14:20:00,43.3,41.7,30.02,ESE,114,3.0,3.0,94,0.00,,,0.08,Wunderground v.1.15,2013-04-09 18:20:00,
2013-04-09 14:21:00,43.3,41.7,30.02,East,88,2.0,4.0,94,0.00,,,0.08,Wunderground v.1.15,2013-04-09 18:21:00,
2013-04-09 14:23:00,43.3,41.7,30.02,NE,46,2.0,4.0,94,0.00,,,0.08,Wunderground v.1.15,2013-04-09 18:23:00,
2013-04-09 14:25:00,43.4,41.8,30.02,East,82,1.0,4.0,94,0.00,,,0.08,Wunderground v.1.15,2013-04-09 18:25:00,
2013-04-09 14:26:00,43.4,41.8,30.02,East,98,1.0,4.0,94,0.00,,,0.08,Wunderground v.1.15,2013-04-09 18:26:00,
2013-04-09 14:28:00,43.5,41.9,30.02,ENE,74,3.0,4.0,94,0.00,,,0.08,Wunderground v.1.15,2013-04-09 18:28:00,
2013-04-09 14:29:00,43.4,41.8,30.01,East,96,5.0,5.0,94,0.00,,,0.08,Wunderground v.1.15,2013-04-09 18:29:00,
2013-04-09 14:31:00,43.3,41.7,30.01,ENE,67,3.0,4.0,94,0.00,,,0.08,Wunderground v.1.15,2013-04-09 18:31:00,
2013-04-09 14:32:00,43.3,41.7,30.01,East,89,3.0,4.0,94,0.00,,,0.08,Wunderground v.1.15,2013-04-09 18:32:00,
2013-04-09 14:33:00,43.3,41.7,30.01,East,84,4.0,4.0,94,0.00,,,0.08,Wunderground v.1.15,2013-04-09 18:33:00,
2013-04-09 14:34:00,43.3,41.7,30.01,East,91,3.0,4.0,94,0.00,,,0.08,Wunderground v.1.15,2013-04-09 18:34:00,
2013-04-09 14:36:00,43.3,41.7,30.01,East,89,0.0,4.0,94,0.00,,,0.08,Wunderground v.1.15,2013-04-09 18:36:00,
2013-04-09 14:37:00,43.5,41.9,30.01,ESE,107,2.0,4.0,94,0.00,,,0.08,Wunderground v.1.15,2013-04-09 18:37:00,
2013-04-09 14:38:00,43.4,41.8,30.01,East,101,3.0,4.0,94,0.00,,,0.08,Wunderground v.1.15,2013-04-09 18:38:00,
2013-04-09 14:39:00,43.4,41.8,30.01,East,82,1.0,4.0,94,0.00,,,0.08,Wunderground v.1.15,2013-04-09 18:39:00,
2013-04-09 14:41:00,43.5,41.9,30.01,ENE,75,1.0,2.0,94,0.00,,,0.08,Wunderground v.1.15,2013-04-09 18:41:00,
2013-04-09 14:43:00,43.4,41.8,30.01,East,91,2.0,2.0,94,0.00,,,0.08,Wunderground v.1.15,2013-04-09 18:43:00,
2013-04-09 14:46:00,43.5,41.9,30.00,ENE,78,3.0,6.0,94,0.00,,,0.08,Wunderground v.1.15,2013-04-09 18:46:00,
2013-04-09 14:48:00,43.4,41.8,30.00,East,89,2.0,6.0,94,0.00,,,0.08,Wunderground v.1.15,2013-04-09 18:48:00,
2013-04-09 14:52:00,43.5,41.9,30.00,SE,134,1.0,4.0,94,0.00,,,0.08,Wunderground v.1.15,2013-04-09 18:52:00,
2013-04-09 14:53:00,43.5,41.9,30.00,ESE,115,2.0,4.0,94,0.00,,,0.08,Wunderground v.1.15,2013-04-09 18:53:00,
2013-04-09 14:54:00,43.6,42.0,30.00,East,95,1.0,4.0,94,0.00,,,0.08,Wunderground v.1.15,2013-04-09 18:54:00,
2013-04-09 14:57:00,43.6,42.0,30.00,East,89,2.0,4.0,94,0.00,,,0.08,Wunderground v.1.15,2013-04-09 18:57:00,
2013-04-09 14:58:00,43.6,42.0,30.00,East,96,2.0,4.0,94,0.00,,,0.08,Wunderground v.1.15,2013-04-09 18:58:00,
2013-04-09 14:59:00,43.6,42.0,30.00,East,91,0.0,4.0,94,0.00,,,0.08,Wunderground v.1.15,2013-04-09 18:59:00,
2013-04-09 15:03:00,43.6,42.0,30.00,East,91,4.0,5.0,94,0.00,,,0.08,Wunderground v.1.15,2013-04-09 19:03:00,
2013-04-09 15:04:00,43.5,41.9,30.00,East,86,3.0,5.0,94,0.00,,,0.08,Wunderground v.1.15,2013-04-09 19:04:00,
2013-04-09 15:08:00,43.5,41.9,30.00,East,88,0.0,5.0,94,0.00,,,0.08,Wunderground v.1.15,2013-04-09 19:08:00,
2013-04-09 15:09:00,43.5,41.9,30.00,East,87,0.0,5.0,94,0.00,,,0.08,Wunderground v.1.15,2013-04-09 19:09:00,
2013-04-09 15:14:00,43.6,42.3,29.99,ESE,111,0.0,2.0,95,0.00,,,0.08,Wunderground v.1.15,2013-04-09 19:14:00,
2013-04-09 15:15:00,43.6,42.3,29.99,East,89,0.0,2.0,95,0.00,,,0.08,Wunderground v.1.15,2013-04-09 19:15:00,
2013-04-09 15:19:00,43.6,42.0,29.99,ESE,114,1.0,8.0,94,0.00,,,0.08,Wunderground v.1.15,2013-04-09 19:19:00,
2013-04-09 15:20:00,43.6,42.0,29.99,WNW,300,1.0,1.0,94,0.00,,,0.08,Wunderground v.1.15,2013-04-09 19:20:00,
2013-04-09 15:25:00,43.7,42.4,29.99,NE,53,0.0,2.0,95,0.00,,,0.08,Wunderground v.1.15,2013-04-09 19:25:00,
2013-04-09 15:26:00,43.7,42.1,29.99,ENE,64,1.0,2.0,94,0.00,,,0.08,Wunderground v.1.15,2013-04-09 19:26:00,
2013-04-09 15:30:00,43.7,42.1,29.99,East,93,1.0,1.0,94,0.00,,,0.08,Wunderground v.1.15,2013-04-09 19:30:00,
2013-04-09 15:31:00,43.7,42.1,29.99,ENE,57,2.0,2.0,94,0.00,,,0.08,Wunderground v.1.15,2013-04-09 19:31:00,
2013-04-09 15:35:00,43.8,42.2,29.99,East,89,2.0,3.0,94,0.00,,,0.08,Wunderground v.1.15,2013-04-09 19:35:00,
2013-04-09 15:37:00,43.8,42.2,29.98,ENE,58,3.0,3.0,94,0.00,,,0.08,Wunderground v.1.15,2013-04-09 19:37:00,
2013-04-09 15:41:00,43.7,42.1,29.98,ESE,105,4.0,4.0,94,0.00,,,0.08,Wunderground v.1.15,2013-04-09 19:41:00,
2013-04-09 15:42:00,43.7,42.1,29.98,East,94,2.0,4.0,94,0.00,,,0.08,Wunderground v.1.15,2013-04-09 19:42:00,
2013-04-09 15:43:00,43.7,42.1,29.98,East,90,4.0,4.0,94,0.00,,,0.08,Wunderground v.1.15,2013-04-09 19:43:00,
2013-04-09 15:46:00,43.6,42.0,29.98,East,94,2.0,6.0,94,0.00,,,0.08,Wunderground v.1.15,2013-04-09 19:46:00,
2013-04-09 15:47:00,43.6,42.0,29.98,East,88,3.0,6.0,94,0.00,,,0.08,Wunderground v.1.15,2013-04-09 19:47:00,
2013-04-09 15:48:00,43.6,42.0,29.98,East,84,1.0,6.0,94,0.00,,,0.08,Wunderground v.1.15,2013-04-09 19:48:00,
2013-04-09 15:52:00,43.6,42.0,29.98,East,83,1.0,3.0,94,0.00,,,0.08,Wunderground v.1.15,2013-04-09 19:52:00,
2013-04-09 15:53:00,43.6,42.0,29.98,East,88,1.0,3.0,94,0.00,,,0.08,Wunderground v.1.15,2013-04-09 19:53:00,
2013-04-09 15:57:00,43.6,42.0,29.98,East,93,0.0,3.0,94,0.00,,,0.08,Wunderground v.1.15,2013-04-09 19:57:00,
2013-04-09 15:58:00,43.6,42.0,29.98,East,94,0.0,3.0,94,0.00,,,0.08,Wunderground v.1.15,2013-04-09 19:58:00,
2013-04-09 16:03:00,43.7,42.1,29.98,ENE,77,1.0,2.0,94,0.00,,,0.08,Wunderground v.1.15,2013-04-09 20:03:00,
2013-04-09 16:08:00,43.9,42.6,29.98,East,91,0.0,4.0,95,0.00,,,0.08,Wunderground v.1.15,2013-04-09 20:08:00,
2013-04-09 16:09:00,44.0,42.4,29.98,East,91,1.0,4.0,94,0.00,,,0.08,Wunderground v.1.15,2013-04-09 20:09:00,
2013-04-09 16:13:00,44.1,42.5,29.98,East,86,3.0,3.0,94,0.00,,,0.08,Wunderground v.1.15,2013-04-09 20:13:00,
2013-04-09 16:15:00,44.1,42.5,29.98,ESE,104,3.0,4.0,94,0.00,,,0.08,Wunderground v.1.15,2013-04-09 20:15:00,
2013-04-09 16:16:00,44.1,42.5,29.98,East,89,2.0,4.0,94,0.00,,,0.08,Wunderground v.1.15,2013-04-09 20:16:00,
2013-04-09 16:18:00,44.1,42.5,29.99,NNW,333,2.0,4.0,94,0.00,,,0.08,Wunderground v.1.15,2013-04-09 20:18:00,
2013-04-09 16:20:00,44.2,42.6,30.00,NNW,346,1.0,2.0,94,0.00,,,0.08,Wunderground v.1.15,2013-04-09 20:20:00,
2013-04-09 16:21:00,44.3,42.7,30.00,NNE,23,1.0,3.0,94,0.00,,,0.08,Wunderground v.1.15,2013-04-09 20:21:00,
2013-04-09 16:23:00,44.3,42.7,30.01,North,354,0.0,3.0,94,0.00,,,0.08,Wunderground v.1.15,2013-04-09 20:23:00,
2013-04-09 16:25:00,44.4,42.8,30.00,East,91,1.0,3.0,94,0.00,,,0.08,Wunderground v.1.15,2013-04-09 20:25:00,
2013-04-09 16:27:00,44.4,42.8,29.99,East,93,0.0,3.0,94,0.00,,,0.08,Wunderground v.1.15,2013-04-09 20:27:00,
2013-04-09 16:28:00,44.5,42.9,29.99,East,82,1.0,3.0,94,0.00,,,0.08,Wunderground v.1.15,2013-04-09 20:28:00,
2013-04-09 16:30:00,44.5,42.9,29.99,ENE,77,1.0,1.0,94,0.00,,,0.08,Wunderground v.1.15,2013-04-09 20:30:00,
2013-04-09 16:32:00,44.5,42.9,29.99,ENE,68,0.0,1.0,94,0.00,,,0.08,Wunderground v.1.15,2013-04-09 20:32:00,
2013-04-09 16:35:00,44.6,43.0,29.99,East,94,1.0,2.0,94,0.00,,,0.08,Wunderground v.1.15,2013-04-09 20:35:00,
2013-04-09 16:37:00,44.6,43.0,29.99,East,81,1.0,2.0,94,0.00,,,0.08,Wunderground v.1.15,2013-04-09 20:37:00,
2013-04-09 16:41:00,44.7,43.1,29.99,East,82,1.0,1.0,94,0.00,,,0.08,Wunderground v.1.15,2013-04-09 20:41:00,
2013-04-09 16:42:00,44.7,43.1,29.99,East,82,2.0,2.0,94,0.00,,,0.08,Wunderground v.1.15,2013-04-09 20:42:00,
2013-04-09 16:47:00,44.8,42.9,29.98,ENE,77,2.0,3.0,93,0.00,,,0.08,Wunderground v.1.15,2013-04-09 20:47:00,
2013-04-09 16:52:00,44.8,43.2,29.98,ENE,65,1.0,1.0,94,0.00,,,0.08,Wunderground v.1.15,2013-04-09 20:52:00,
2013-04-09 16:53:00,44.8,43.2,29.98,ENE,65,1.0,1.0,94,0.00,,,0.08,Wunderground v.1.15,2013-04-09 20:53:00,
2013-04-09 16:57:00,44.7,42.8,29.97,East,89,2.0,4.0,93,0.00,,,0.08,Wunderground v.1.15,2013-04-09 20:57:00,
2013-04-09 16:58:00,44.6,42.7,29.97,East,81,3.0,4.0,93,0.00,,,0.08,Wunderground v.1.15,2013-04-09 20:58:00,
2013-04-09 17:02:00,44.6,42.7,29.97,East,82,3.0,3.0,93,0.00,,,0.08,Wunderground v.1.15,2013-04-09 21:02:00,
2013-04-09 17:03:00,44.6,42.7,29.97,ESE,105,3.0,3.0,93,0.00,,,0.08,Wunderground v.1.15,2013-04-09 21:03:00,
2013-04-09 17:07:00,44.5,42.6,29.97,East,83,1.0,5.0,93,0.00,,,0.08,Wunderground v.1.15,2013-04-09 21:07:00,
2013-04-09 17:08:00,44.5,42.6,29.97,ENE,62,2.0,5.0,93,0.00,,,0.08,Wunderground v.1.15,2013-04-09 21:08:00,
2013-04-09 17:12:00,44.4,42.8,29.97,East,91,3.0,4.0,94,0.00,,,0.08,Wunderground v.1.15,2013-04-09 21:12:00,
2013-04-09 17:13:00,44.3,42.7,29.97,East,90,2.0,4.0,94,0.00,,,0.08,Wunderground v.1.15,2013-04-09 21:13:00,
2013-04-09 17:17:00,44.3,42.7,29.97,ENE,63,1.0,4.0,94,0.00,,,0.08,Wunderground v.1.15,2013-04-09 21:17:00,
2013-04-09 17:18:00,44.3,42.7,29.97,ENE,62,1.0,4.0,94,0.00,,,0.08,Wunderground v.1.15,2013-04-09 21:18:00,
2013-04-09 17:19:00,44.3,42.7,29.97,East,90,1.0,4.0,94,0.00,,,0.08,Wunderground v.1.15,2013-04-09 21:19:00,
2013-04-09 17:22:00,44.3,42.7,29.97,East,94,1.0,2.0,94,0.44,,,0.10,Wunderground v.1.15,2013-04-09 21:22:00,
2013-04-09 17:23:00,44.3,42.7,29.96,East,88,3.0,3.0,94,0.38,,,0.10,Wunderground v.1.15,2013-04-09 21:23:00,
2013-04-09 17:24:00,44.3,42.7,29.96,East,92,4.0,4.0,94,0.35,,,0.10,Wunderground v.1.15,2013-04-09 21:24:00,
2013-04-09 17:25:00,44.2,42.6,29.96,ENE,76,1.0,4.0,94,0.20,,,0.10,Wunderground v.1.15,2013-04-09 21:25:00,
2013-04-09 17:28:00,44.1,42.5,29.96,East,93,2.0,4.0,94,0.09,,,0.10,Wunderground v.1.15,2013-04-09 21:28:00,
2013-04-09 17:29:00,44.1,42.5,29.96,East,86,2.0,4.0,94,0.08,,,0.10,Wunderground v.1.15,2013-04-09 21:29:00,
2013-04-09 17:30:00,44.1,42.5,29.96,East,84,4.0,4.0,94,0.07,,,0.10,Wunderground v.1.15,2013-04-09 21:30:00,
2013-04-09 17:33:00,44.1,42.5,29.96,East,83,1.0,4.0,94,0.05,,,0.10,Wunderground v.1.15,2013-04-09 21:33:00,
2013-04-09 17:35:00,44.1,42.5,29.96,NE,56,2.0,4.0,94,0.05,,,0.10,Wunderground v.1.15,2013-04-09 21:35:00,
2013-04-09 17:38:00,44.1,42.5,29.96,East,88,2.0,4.0,94,0.04,,,0.10,Wunderground v.1.15,2013-04-09 21:38:00,
2013-04-09 17:39:00,44.1,42.5,29.96,East,80,2.0,4.0,94,0.00,,,0.10,Wunderground v.1.15,2013-04-09 21:39:00,
2013-04-09 17:40:00,44.1,42.5,29.95,ENE,58,3.0,3.0,94,0.00,,,0.10,Wunderground v.1.15,2013-04-09 21:40:00,
2013-04-09 17:41:00,44.1,42.5,29.95,ENE,70,2.0,3.0,94,0.00,,,0.10,Wunderground v.1.15,2013-04-09 21:41:00,
2013-04-09 17:44:00,44.1,42.5,29.95,East,90,2.0,3.0,94,0.00,,,0.10,Wunderground v.1.15,2013-04-09 21:44:00,
2013-04-09 17:46:00,44.1,42.5,29.96,East,91,3.0,4.0,94,0.00,,,0.10,Wunderground v.1.15,2013-04-09 21:46:00,
2013-04-09 17:47:00,44.1,42.5,29.96,ENE,73,1.0,4.0,94,0.00,,,0.10,Wunderground v.1.15,2013-04-09 21:47:00,
2013-04-09 17:49:00,44.1,42.5,29.95,ENE,69,2.0,4.0,94,0.00,,,0.10,Wunderground v.1.15,2013-04-09 21:49:00,
2013-04-09 17:51:00,44.1,42.8,29.95,East,86,1.0,2.0,95,0.00,,,0.10,Wunderground v.1.15,2013-04-09 21:51:00,
2013-04-09 17:52:00,44.0,42.7,29.95,East,89,4.0,4.0,95,0.00,,,0.10,Wunderground v.1.15,2013-04-09 21:52:00,
2013-04-09 17:54:00,44.1,42.8,29.95,East,97,2.0,4.0,95,0.00,,,0.11,Wunderground v.1.15,2013-04-09 21:54:00,
2013-04-09 17:55:00,44.0,42.7,29.95,East,98,2.0,4.0,95,0.00,,,0.11,Wunderground v.1.15,2013-04-09 21:55:00,
2013-04-09 17:57:00,44.0,42.7,29.95,ENE,77,3.0,5.0,95,0.00,,,0.11,Wunderground v.1.15,2013-04-09 21:57:00,
2013-04-09 18:00:00,43.9,42.6,29.95,ENE,60,1.0,3.0,95,0.00,,,0.11,Wunderground v.1.15,2013-04-09 22:00:00,
2013-04-09 18:02:00,43.9,42.6,29.95,East,89,2.0,3.0,95,0.00,,,0.11,Wunderground v.1.15,2013-04-09 22:02:00,
2013-04-09 18:03:00,43.9,42.6,29.95,East,95,1.0,3.0,95,0.06,,,0.12,Wunderground v.1.15,2013-04-09 22:03:00,
2013-04-09 18:05:00,43.8,42.5,29.95,East,81,1.0,3.0,95,0.66,,,0.14,Wunderground v.1.15,2013-04-09 22:05:00,
2013-04-09 18:07:00,43.8,42.5,29.94,ENE,77,2.0,3.0,95,0.46,,,0.16,Wunderground v.1.15,2013-04-09 22:07:00,
2013-04-09 18:08:00,43.8,42.5,29.94,East,100,4.0,7.0,95,0.46,,,0.16,Wunderground v.1.15,2013-04-09 22:08:00,
2013-04-09 18:10:00,43.8,42.5,29.94,ESE,105,3.0,3.0,95,0.20,,,0.16,Wunderground v.1.15,2013-04-09 22:10:00,
2013-04-09 18:12:00,43.8,42.5,29.94,East,101,3.0,5.0,95,0.20,,,0.17,Wunderground v.1.15,2013-04-09 22:12:00,
2013-04-09 18:13:00,43.8,42.5,29.94,East,79,2.0,5.0,95,0.19,,,0.17,Wunderground v.1.15,2013-04-09 22:13:00,
2013-04-09 18:15:00,43.8,42.5,29.94,East,95,3.0,5.0,95,0.12,,,0.17,Wunderground v.1.15,2013-04-09 22:15:00,
2013-04-09 18:18:00,43.9,42.6,29.94,ENE,77,1.0,5.0,95,0.08,,,0.17,Wunderground v.1.15,2013-04-09 22:18:00,
2013-04-09 18:19:00,43.9,42.6,29.95,ENE,69,2.0,5.0,95,0.07,,,0.17,Wunderground v.1.15,2013-04-09 22:19:00,
2013-04-09 18:20:00,43.9,42.6,29.95,NE,34,1.0,2.0,95,0.06,,,0.17,Wunderground v.1.15,2013-04-09 22:20:00,
2013-04-09 18:23:00,43.9,42.6,29.94,ESE,103,2.0,2.0,95,0.05,,,0.17,Wunderground v.1.15,2013-04-09 22:23:00,
2013-04-09 18:24:00,43.9,42.6,29.94,East,84,1.0,2.0,95,0.04,,,0.17,Wunderground v.1.15,2013-04-09 22:24:00,
2013-04-09 18:25:00,43.9,42.6,29.94,ESE,106,1.0,2.0,95,0.04,,,0.17,Wunderground v.1.15,2013-04-09 22:25:00,
2013-04-09 18:28:00,43.9,42.6,29.95,East,98,1.0,2.0,95,0.00,,,0.17,Wunderground v.1.15,2013-04-09 22:28:00,
2013-04-09 18:30:00,43.9,42.6,29.95,East,95,0.0,1.0,95,0.00,,,0.17,Wunderground v.1.15,2013-04-09 22:30:00,
2013-04-09 18:31:00,43.9,42.6,29.95,East,95,1.0,1.0,95,0.00,,,0.17,Wunderground v.1.15,2013-04-09 22:31:00,
2013-04-09 18:33:00,43.9,42.6,29.95,East,95,0.0,1.0,95,0.00,,,0.17,Wunderground v.1.15,2013-04-09 22:33:00,
2013-04-09 18:35:00,44.0,42.7,29.95,East,95,0.0,1.0,95,0.00,,,0.17,Wunderground v.1.15,2013-04-09 22:35:00,
2013-04-09 18:36:00,44.0,42.7,29.95,East,94,0.0,1.0,95,0.00,,,0.17,Wunderground v.1.15,2013-04-09 22:36:00,
2013-04-09 18:38:00,44.0,42.7,29.95,East,94,0.0,1.0,95,0.00,,,0.17,Wunderground v.1.15,2013-04-09 22:38:00,
2013-04-09 18:41:00,44.0,42.7,29.95,East,94,0.0,0.0,95,0.00,,,0.17,Wunderground v.1.15,2013-04-09 22:41:00,
2013-04-09 18:42:00,44.0,42.9,29.95,ESE,105,1.0,1.0,96,0.00,,,0.17,Wunderground v.1.15,2013-04-09 22:42:00,
2013-04-09 18:43:00,44.0,42.9,29.95,East,98,1.0,1.0,96,0.00,,,0.17,Wunderground v.1.15,2013-04-09 22:43:00,
2013-04-09 18:46:00,44.0,42.9,29.95,ESE,111,0.0,2.0,96,0.00,,,0.17,Wunderground v.1.15,2013-04-09 22:46:00,
2013-04-09 18:47:00,44.0,42.9,29.95,ESE,111,0.0,2.0,96,0.00,,,0.17,Wunderground v.1.15,2013-04-09 22:47:00,
2013-04-09 18:48:00,44.0,42.9,29.95,ESE,111,0.0,2.0,96,0.00,,,0.17,Wunderground v.1.15,2013-04-09 22:48:00,
2013-04-09 18:52:00,44.1,43.0,29.95,ESE,111,0.0,0.0,96,0.00,,,0.17,Wunderground v.1.15,2013-04-09 22:52:00,
2013-04-09 18:53:00,44.1,43.0,29.95,ESE,112,0.0,0.0,96,0.00,,,0.17,Wunderground v.1.15,2013-04-09 22:53:00,
2013-04-09 18:54:00,44.1,43.0,29.95,ESE,111,0.0,0.0,96,0.00,,,0.17,Wunderground v.1.15,2013-04-09 22:54:00,
2013-04-09 18:57:00,44.1,43.0,29.99,NW,322,5.0,5.0,96,0.00,,,0.17,Wunderground v.1.15,2013-04-09 22:57:00,
2013-04-09 18:59:00,44.1,43.0,30.00,WSW,253,1.0,7.0,96,0.00,,,0.17,Wunderground v.1.15,2013-04-09 22:59:00,
2013-04-09 19:02:00,44.1,43.0,29.96,East,96,3.0,6.0,96,0.00,,,0.17,Wunderground v.1.15,2013-04-09 23:02:00,
2013-04-09 19:03:00,44.2,43.1,29.96,East,94,2.0,6.0,96,0.00,,,0.17,Wunderground v.1.15,2013-04-09 23:03:00,
2013-04-09 19:04:00,44.2,43.1,29.96,East,89,3.0,6.0,96,0.00,,,0.18,Wunderground v.1.15,2013-04-09 23:04:00,
2013-04-09 19:08:00,44.2,43.1,29.97,NW,313,3.0,6.0,96,0.00,,,0.18,Wunderground v.1.15,2013-04-09 23:08:00,
2013-04-09 19:09:00,44.2,43.1,29.97,North,359,1.0,6.0,96,0.00,,,0.18,Wunderground v.1.15,2013-04-09 23:09:00,
2013-04-09 19:13:00,44.2,43.1,29.96,East,98,2.0,3.0,96,0.00,,,0.18,Wunderground v.1.15,2013-04-09 23:13:00,
2013-04-09 19:14:00,44.2,43.1,29.96,East,98,2.0,3.0,96,0.00,,,0.18,Wunderground v.1.15,2013-04-09 23:14:00,
2013-04-09 19:19:00,44.3,43.2,29.95,East,98,2.0,3.0,96,0.00,,,0.18,Wunderground v.1.15,2013-04-09 23:19:00,
2013-04-09 19:20:00,44.3,43.2,29.95,SE,136,1.0,1.0,96,0.04,,,0.19,Wunderground v.1.15,2013-04-09 23:20:00,
2013-04-09 19:24:00,44.3,43.2,29.93,East,83,1.0,3.0,96,0.14,,,0.20,Wunderground v.1.15,2013-04-09 23:24:00,
2013-04-09 19:25:00,44.3,43.2,29.93,ENE,77,0.0,3.0,96,0.80,,,0.21,Wunderground v.1.15,2013-04-09 23:25:00,
2013-04-09 19:29:00,44.3,43.2,29.94,SE,136,0.0,3.0,96,0.12,,,0.21,Wunderground v.1.15,2013-04-09 23:29:00,
2013-04-09 19:30:00,44.3,43.2,29.94,SE,136,0.0,1.0,96,0.11,,,0.21,Wunderground v.1.15,2013-04-09 23:30:00,
2013-04-09 19:34:00,44.4,43.3,29.96,NW,317,0.0,3.0,96,0.11,,,0.22,Wunderground v.1.15,2013-04-09 23:34:00,
2013-04-09 19:35:00,44.4,43.3,29.96,NW,317,0.0,3.0,96,0.11,,,0.22,Wunderground v.1.15,2013-04-09 23:35:00,
2013-04-09 19:39:00,44.4,43.3,29.93,SSE,148,3.0,4.0,96,0.06,,,0.22,Wunderground v.1.15,2013-04-09 23:39:00,
2013-04-09 19:40:00,44.4,43.3,29.93,SE,138,1.0,2.0,96,0.06,,,0.22,Wunderground v.1.15,2013-04-09 23:40:00,
2013-04-09 19:41:00,44.4,43.3,29.93,SE,127,1.0,2.0,96,0.06,,,0.22,Wunderground v.1.15,2013-04-09 23:41:00,
2013-04-09 19:44:00,44.4,43.3,29.93,NE,53,1.0,3.0,96,0.04,,,0.22,Wunderground v.1.15,2013-04-09 23:44:00,
2013-04-09 19:45:00,44.4,43.3,29.93,NE,53,1.0,3.0,96,0.04,,,0.22,Wunderground v.1.15,2013-04-09 23:45:00,
2013-04-09 19:46:00,44.4,43.3,29.94,NNW,334,0.0,3.0,96,0.04,,,0.22,Wunderground v.1.15,2013-04-09 23:46:00,
2013-04-09 19:50:00,44.4,43.3,29.94,East,93,1.0,1.0,96,0.00,,,0.22,Wunderground v.1.15,2013-04-09 23:50:00,
2013-04-09 19:52:00,44.4,43.3,29.94,ESE,104,0.0,2.0,96,0.00,,,0.22,Wunderground v.1.15,2013-04-09 23:52:00,
2013-04-09 19:55:00,44.5,43.4,29.94,NNE,26,0.0,2.0,96,0.00,,,0.22,Wunderground v.1.15,2013-04-09 23:55:00,
2013-04-09 19:57:00,44.5,43.4,29.94,NNE,27,0.0,2.0,96,0.00,,,0.22,Wunderground v.1.15,2013-04-09 23:57:00,
2013-04-09 20:00:00,44.5,43.4,29.94,East,100,1.0,2.0,96,0.00,,,0.22,Wunderground v.1.15,2013-04-10 00:00:00,
2013-04-09 20:02:00,44.5,43.4,29.93,East,86,4.0,4.0,96,0.00,,,0.22,Wunderground v.1.15,2013-04-10 00:02:00,
2013-04-09 20:05:00,44.5,43.4,29.92,East,90,1.0,4.0,96,0.00,,,0.22,Wunderground v.1.15,2013-04-10 00:05:00,
2013-04-09 20:07:00,44.5,43.4,29.93,East,97,0.0,4.0,96,0.00,,,0.22,Wunderground v.1.15,2013-04-10 00:07:00,
2013-04-09 20:08:00,44.5,43.4,29.93,East,97,0.0,4.0,96,0.00,,,0.22,Wunderground v.1.15,2013-04-10 00:08:00,
2013-04-09 20:10:00,44.5,43.4,29.93,East,97,0.0,1.0,96,0.00,,,0.22,Wunderground v.1.15,2013-04-10 00:10:00,
2013-04-09 20:13:00,44.5,43.4,29.93,East,98,0.0,1.0,96,0.00,,,0.22,Wunderground v.1.15,2013-04-10 00:13:00,
2013-04-09 20:15:00,44.5,43.4,29.93,East,93,1.0,1.0,96,0.00,,,0.22,Wunderground v.1.15,2013-04-10 00:15:00,
2013-04-09 20:16:00,44.5,43.4,29.93,East,94,1.0,1.0,96,0.00,,,0.22,Wunderground v.1.15,2013-04-10 00:16:00,
2013-04-09 20:18:00,44.5,43.4,29.93,ENE,76,0.0,1.0,96,0.00,,,0.22,Wunderground v.1.15,2013-04-10 00:18:00,
2013-04-09 20:20:00,44.6,43.5,29.93,NE,53,1.0,2.0,96,0.00,,,0.22,Wunderground v.1.15,2013-04-10 00:20:00,
2013-04-09 20:21:00,44.5,43.4,29.93,NE,53,1.0,2.0,96,0.00,,,0.22,Wunderground v.1.15,2013-04-10 00:21:00,
2013-04-09 20:23:00,44.6,43.5,29.94,NE,53,0.0,2.0,96,0.00,,,0.22,Wunderground v.1.15,2013-04-10 00:23:00,
2013-04-09 20:25:00,44.6,43.5,29.94,NE,53,0.0,2.0,96,0.00,,,0.22,Wunderground v.1.15,2013-04-10 00:25:00,
2013-04-09 20:26:00,44.6,43.5,29.94,NE,53,0.0,2.0,96,0.00,,,0.22,Wunderground v.1.15,2013-04-10 00:26:00,
2013-04-09 20:28:00,44.6,43.5,29.94,NE,50,0.0,2.0,96,0.00,,,0.23,Wunderground v.1.15,2013-04-10 00:28:00,
2013-04-09 20:31:00,44.6,43.5,29.96,NW,319,1.0,2.0,96,0.00,,,0.23,Wunderground v.1.15,2013-04-10 00:31:00,
2013-04-09 20:33:00,44.6,43.5,29.97,WNW,287,3.0,3.0,96,0.00,,,0.23,Wunderground v.1.15,2013-04-10 00:33:00,
2013-04-09 20:36:00,44.6,43.5,29.99,NNW,329,1.0,5.0,96,0.00,,,0.23,Wunderground v.1.15,2013-04-10 00:36:00,
2013-04-09 20:38:00,44.6,43.5,29.99,WNW,303,2.0,6.0,96,0.06,,,0.24,Wunderground v.1.15,2013-04-10 00:38:00,
2013-04-09 20:39:00,44.6,43.5,29.99,WNW,284,1.0,6.0,96,0.06,,,0.24,Wunderground v.1.15,2013-04-10 00:39:00,
2013-04-09 20:41:00,44.6,43.8,29.99,NW,314,3.0,6.0,97,0.22,,,0.25,Wunderground v.1.15,2013-04-10 00:41:00,
2013-04-09 20:43:00,44.7,43.9,29.99,ESE,104,1.0,6.0,97,0.19,,,0.26,Wunderground v.1.15,2013-04-10 00:43:00,
2013-04-09 20:44:00,44.7,43.9,29.97,ESE,121,1.0,6.0,97,0.47,,,0.27,Wunderground v.1.15,2013-04-10 00:44:00,
2013-04-09 20:46:00,44.7,43.9,29.97,East,91,1.0,6.0,97,0.86,,,0.31,Wunderground v.1.15,2013-04-10 00:46:00,
2013-04-09 20:47:00,44.7,43.9,29.97,East,90,0.0,6.0,97,0.57,,,0.31,Wunderground v.1.15,2013-04-10 00:47:00,
2013-04-09 20:48:00,44.7,43.9,29.97,East,89,1.0,6.0,97,0.77,,,0.33,Wunderground v.1.15,2013-04-10 00:48:00,
2013-04-09 20:50:00,44.8,44.0,29.97,SE,131,0.0,1.0,97,1.04,,,0.35,Wunderground v.1.15,2013-04-10 00:50:00,
2013-04-09 20:51:00,44.8,44.0,29.97,SE,124,0.0,1.0,97,0.55,,,0.37,Wunderground v.1.15,2013-04-10 00:51:00,
2013-04-09 20:52:00,44.8,44.0,29.97,NNE,31,1.0,1.0,97,0.73,,,0.38,Wunderground v.1.15,2013-04-10 00:52:00,
2013-04-09 20:53:00,44.8,44.0,29.98,NNE,30,1.0,1.0,97,0.32,,,0.38,Wunderground v.1.15,2013-04-10 00:53:00,
2013-04-09 20:55:00,44.8,44.0,29.98,North,359,0.0,2.0,97,0.21,,,0.39,Wunderground v.1.15,2013-04-10 00:55:00,
2013-04-09 20:57:00,44.8,44.0,29.97,ENE,74,1.0,2.0,97,0.21,,,0.39,Wunderground v.1.15,2013-04-10 00:57:00,
2013-04-09 20:58:00,44.8,44.0,29.98,East,94,0.0,2.0,97,0.15,,,0.39,Wunderground v.1.15,2013-04-10 00:58:00,
2013-04-09 21:00:00,44.8,44.0,29.98,NNW,336,0.0,0.0,97,0.11,,,0.39,Wunderground v.1.15,2013-04-10 01:00:00,
2013-04-09 21:02:00,44.8,44.0,29.98,SSW,208,0.0,1.0,97,0.08,,,0.39,Wunderground v.1.15,2013-04-10 01:02:00,
2013-04-09 21:04:00,44.8,44.0,29.97,SSE,148,1.0,2.0,97,0.07,,,0.39,Wunderground v.1.15,2013-04-10 01:04:00,
2013-04-09 21:05:00,44.8,44.0,29.97,SE,131,1.0,2.0,97,0.06,,,0.39,Wunderground v.1.15,2013-04-10 01:05:00,
2013-04-09 21:07:00,44.8,44.0,29.96,East,96,1.0,2.0,97,0.05,,,0.40,Wunderground v.1.15,2013-04-10 01:07:00,
2013-04-09 21:08:00,44.8,44.0,29.96,NE,35,2.0,2.0,97,0.05,,,0.40,Wunderground v.1.15,2013-04-10 01:08:00,
2013-04-09 21:09:00,44.9,44.1,29.97,NNW,345,3.0,3.0,97,0.05,,,0.40,Wunderground v.1.15,2013-04-10 01:09:00,
2013-04-09 21:10:00,44.9,44.1,30.00,WNW,296,2.0,3.0,97,0.05,,,0.40,Wunderground v.1.15,2013-04-10 01:10:00,
2013-04-09 21:12:00,44.9,44.1,30.01,West,274,1.0,3.0,97,0.05,,,0.40,Wunderground v.1.15,2013-04-10 01:12:00,
2013-04-09 21:13:00,44.9,44.1,30.01,West,271,1.0,3.0,97,0.05,,,0.40,Wunderground v.1.15,2013-04-10 01:13:00,
2013-04-09 21:14:00,44.9,44.1,30.01,West,270,0.0,3.0,97,0.05,,,0.40,Wunderground v.1.15,2013-04-10 01:14:00,
2013-04-09 21:15:00,44.9,44.1,30.01,West,270,0.0,3.0,97,0.05,,,0.40,Wunderground v.1.15,2013-04-10 01:15:00,
2013-04-09 21:17:00,45.0,44.2,30.01,West,271,1.0,3.0,97,0.05,,,0.40,Wunderground v.1.15,2013-04-10 01:17:00,
2013-04-09 21:18:00,45.0,44.2,30.03,NW,324,4.0,4.0,97,0.05,,,0.40,Wunderground v.1.15,2013-04-10 01:18:00,
2013-04-09 21:19:00,45.0,44.2,30.03,NW,323,3.0,5.0,97,0.05,,,0.41,Wunderground v.1.15,2013-04-10 01:19:00,
2013-04-09 21:20:00,45.1,44.3,30.03,North,359,2.0,3.0,97,0.05,,,0.41,Wunderground v.1.15,2013-04-10 01:20:00,
2013-04-09 21:22:00,45.1,44.3,30.02,WSW,237,1.0,3.0,97,0.05,,,0.41,Wunderground v.1.15,2013-04-10 01:22:00,
2013-04-09 21:24:00,45.1,44.3,30.01,SW,236,0.0,3.0,97,0.05,,,0.41,Wunderground v.1.15,2013-04-10 01:24:00,
2013-04-09 21:26:00,45.1,44.3,30.01,SE,136,1.0,3.0,97,0.05,,,0.41,Wunderground v.1.15,2013-04-10 01:26:00,
2013-04-09 21:27:00,45.1,44.3,30.01,ENE,63,1.0,3.0,97,0.05,,,0.41,Wunderground v.1.15,2013-04-10 01:27:00,
2013-04-09 21:29:00,45.1,44.3,30.01,ENE,64,0.0,3.0,97,0.05,,,0.41,Wunderground v.1.15,2013-04-10 01:29:00,
2013-04-09 21:31:00,45.1,44.3,30.01,WNW,303,0.0,2.0,97,0.05,,,0.41,Wunderground v.1.15,2013-04-10 01:31:00,
2013-04-09 21:32:00,45.1,44.3,30.00,East,94,0.0,2.0,97,0.04,,,0.41,Wunderground v.1.15,2013-04-10 01:32:00,
2013-04-09 21:34:00,45.1,44.3,30.00,East,93,0.0,2.0,97,0.04,,,0.41,Wunderground v.1.15,2013-04-10 01:34:00,
2013-04-09 21:36:00,45.1,44.3,30.01,East,93,0.0,2.0,97,0.00,,,0.41,Wunderground v.1.15,2013-04-10 01:36:00,
2013-04-09 21:38:00,45.1,44.3,30.02,East,93,0.0,2.0,97,0.00,,,0.41,Wunderground v.1.15,2013-04-10 01:38:00,
2013-04-09 21:39:00,45.1,44.3,30.03,NNW,338,1.0,2.0,97,0.00,,,0.41,Wunderground v.1.15,2013-04-10 01:39:00,
2013-04-09 21:40:00,45.1,44.3,30.03,NW,326,1.0,1.0,97,0.00,,,0.42,Wunderground v.1.15,2013-04-10 01:40:00,
2013-04-09 21:41:00,45.1,44.3,30.03,NNW,341,0.0,1.0,97,0.00,,,0.42,Wunderground v.1.15,2013-04-10 01:41:00,
2013-04-09 21:43:00,45.1,44.3,30.02,NW,319,0.0,1.0,97,0.18,,,0.43,Wunderground v.1.15,2013-04-10 01:43:00,
2013-04-09 21:44:00,45.2,44.4,30.00,ENE,58,2.0,2.0,97,0.18,,,0.43,Wunderground v.1.15,2013-04-10 01:44:00,
2013-04-09 21:45:00,45.2,44.4,30.00,East,80,1.0,2.0,97,0.18,,,0.43,Wunderground v.1.15,2013-04-10 01:45:00,
2013-04-09 21:47:00,45.2,44.4,29.98,ENE,58,3.0,3.0,97,0.40,,,0.45,Wunderground v.1.15,2013-04-10 01:47:00,
2013-04-09 21:48:00,45.2,44.4,29.98,NE,50,2.0,4.0,97,0.40,,,0.45,Wunderground v.1.15,2013-04-10 01:48:00,
2013-04-09 21:49:00,45.2,44.4,30.00,NW,318,1.0,4.0,97,0.27,,,0.45,Wunderground v.1.15,2013-04-10 01:49:00,
2013-04-09 21:50:00,45.1,44.3,30.00,NW,324,3.0,3.0,97,0.18,,,0.45,Wunderground v.1.15,2013-04-10 01:50:00,
2013-04-09 21:52:00,45.1,44.3,30.01,NNW,338,3.0,3.0,97,0.18,,,0.46,Wunderground v.1.15,2013-04-10 01:52:00,
2013-04-09 21:53:00,45.1,44.3,30.00,North,8,3.0,5.0,97,0.18,,,0.46,Wunderground v.1.15,2013-04-10 01:53:00,
2013-04-09 21:54:00,45.1,44.3,30.00,ENE,68,3.0,5.0,97,0.15,,,0.46,Wunderground v.1.15,2013-04-10 01:54:00,
2013-04-09 21:55:00,45.1,44.3,30.00,ENE,61,1.0,5.0,97,0.12,,,0.46,Wunderground v.1.15,2013-04-10 01:55:00,
2013-04-09 21:58:00,45.1,44.3,30.00,WSW,240,1.0,5.0,97,0.09,,,0.47,Wunderground v.1.15,2013-04-10 01:58:00,
2013-04-09 21:59:00,45.1,44.3,30.00,ENE,62,1.0,5.0,97,0.09,,,0.47,Wunderground v.1.15,2013-04-10 01:59:00,
2013-04-09 22:00:00,45.1,44.3,30.00,NE,46,0.0,1.0,97,0.09,,,0.47,Wunderground v.1.15,2013-04-10 02:00:00,
2013-04-09 22:03:00,45.0,44.2,30.00,ENE,60,0.0,2.0,97,1.32,,,0.49,Wunderground v.1.15,2013-04-10 02:03:00,
2013-04-09 22:04:00,45.0,44.2,30.00,NE,44,1.0,2.0,97,0.90,,,0.53,Wunderground v.1.15,2013-04-10 02:04:00,
2013-04-09 22:05:00,44.9,44.1,30.00,NNE,16,2.0,4.0,97,0.81,,,0.54,Wunderground v.1.15,2013-04-10 02:05:00,
2013-04-09 22:08:00,44.9,44.1,30.00,East,79,2.0,4.0,97,0.53,,,0.56,Wunderground v.1.15,2013-04-10 02:08:00,
2013-04-09 22:10:00,44.9,44.1,30.00,ENE,65,1.0,2.0,97,2.09,,,0.60,Wunderground v.1.15,2013-04-10 02:10:00,
2013-04-09 22:13:00,44.8,44.0,30.01,NW,314,1.0,4.0,97,2.15,,,0.78,Wunderground v.1.15,2013-04-10 02:13:00,
2013-04-09 22:15:00,44.7,43.9,30.02,NE,38,3.0,4.0,97,0.74,,,0.82,Wunderground v.1.15,2013-04-10 02:15:00,
2013-04-09 22:16:00,44.7,43.9,30.02,NNE,22,1.0,4.0,97,1.14,,,0.83,Wunderground v.1.15,2013-04-10 02:16:00,
2013-04-09 22:18:00,44.7,43.9,30.01,NNE,23,1.0,4.0,97,0.87,,,0.86,Wunderground v.1.15,2013-04-10 02:18:00,
2013-04-09 22:21:00,44.7,43.9,30.02,North,3,3.0,3.0,97,0.38,,,0.88,Wunderground v.1.15,2013-04-10 02:21:00,
2013-04-09 22:23:00,44.7,43.9,30.02,NE,51,0.0,3.0,97,0.27,,,0.89,Wunderground v.1.15,2013-04-10 02:23:00,
2013-04-09 22:24:00,44.6,43.8,30.02,ESE,103,3.0,3.0,97,0.27,,,0.89,Wunderground v.1.15,2013-04-10 02:24:00,
2013-04-09 22:26:00,44.6,43.8,30.01,NE,49,0.0,4.0,97,0.15,,,0.89,Wunderground v.1.15,2013-04-10 02:26:00,
2013-04-09 22:28:00,44.6,43.8,30.01,NNE,15,1.0,4.0,97,0.09,,,0.89,Wunderground v.1.15,2013-04-10 02:28:00,
2013-04-09 22:30:00,44.6,43.8,30.01,East,81,0.0,1.0,97,0.08,,,0.89,Wunderground v.1.15,2013-04-10 02:30:00,
2013-04-09 22:31:00,44.6,43.8,30.01,NE,36,0.0,1.0,97,0.07,,,0.90,Wunderground v.1.15,2013-04-10 02:31:00,
2013-04-09 22:32:00,44.5,43.7,30.01,NNW,345,2.0,2.0,97,0.07,,,0.90,Wunderground v.1.15,2013-04-10 02:32:00,
2013-04-09 22:33:00,44.5,43.7,30.02,NW,314,2.0,4.0,97,0.07,,,0.90,Wunderground v.1.15,2013-04-10 02:33:00,
2013-04-09 22:35:00,44.5,43.7,30.01,NE,42,0.0,4.0,97,0.07,,,0.90,Wunderground v.1.15,2013-04-10 02:35:00,
2013-04-09 22:36:00,44.5,43.7,30.01,ENE,77,0.0,4.0,97,0.07,,,0.90,Wunderground v.1.15,2013-04-10 02:36:00,
2013-04-09 22:37:00,44.5,43.7,30.01,NE,55,2.0,4.0,97,0.09,,,0.90,Wunderground v.1.15,2013-04-10 02:37:00,
2013-04-09 22:39:00,44.4,43.6,30.01,NE,44,0.0,4.0,97,0.09,,,0.91,Wunderground v.1.15,2013-04-10 02:39:00,
2013-04-09 22:40:00,44.4,43.6,30.01,East,91,1.0,2.0,97,0.09,,,0.91,Wunderground v.1.15,2013-04-10 02:40:00,
2013-04-09 22:42:00,44.4,43.6,30.01,ENE,62,3.0,3.0,97,0.09,,,0.91,Wunderground v.1.15,2013-04-10 02:42:00,
2013-04-09 22:44:00,44.4,43.6,30.01,North,10,0.0,3.0,97,0.11,,,0.92,Wunderground v.1.15,2013-04-10 02:44:00,
2013-04-09 22:45:00,44.3,43.5,30.01,North,10,0.0,3.0,97,0.11,,,0.92,Wunderground v.1.15,2013-04-10 02:45:00,
2013-04-09 22:47:00,44.3,43.5,30.01,NE,56,1.0,3.0,97,0.35,,,0.93,Wunderground v.1.15,2013-04-10 02:47:00,
2013-04-09 22:49:00,44.2,43.4,30.01,WNW,297,1.0,4.0,97,0.29,,,0.94,Wunderground v.1.15,2013-04-10 02:49:00,
2013-04-09 22:50:00,44.2,43.4,30.02,NNE,13,1.0,5.0,97,0.18,,,0.94,Wunderground v.1.15,2013-04-10 02:50:00,
2013-04-09 22:52:00,44.1,43.3,30.01,East,93,2.0,5.0,97,0.12,,,0.94,Wunderground v.1.15,2013-04-10 02:52:00,
2013-04-09 22:54:00,44.0,43.2,30.01,ENE,63,2.0,5.0,97,0.08,,,0.94,Wunderground v.1.15,2013-04-10 02:54:00,
2013-04-09 22:55:00,44.0,43.2,30.01,ENE,74,3.0,5.0,97,0.07,,,0.94,Wunderground v.1.15,2013-04-10 02:55:00,
2013-04-09 22:57:00,43.9,43.1,30.00,ENE,60,3.0,5.0,97,0.06,,,0.94,Wunderground v.1.15,2013-04-10 02:57:00,
2013-04-09 22:59:00,43.7,42.6,30.02,North,8,1.0,5.0,96,0.05,,,0.95,Wunderground v.1.15,2013-04-10 02:59:00,
2013-04-09 23:00:00,43.6,42.5,30.01,East,79,2.0,3.0,96,0.05,,,0.95,Wunderground v.1.15,2013-04-10 03:00:00,
2013-04-09 23:02:00,43.5,42.4,30.01,NW,310,1.0,3.0,96,0.05,,,0.95,Wunderground v.1.15,2013-04-10 03:02:00,
2013-04-09 23:03:00,43.5,42.4,30.01,ENE,78,1.0,3.0,96,0.05,,,0.95,Wunderground v.1.15,2013-04-10 03:03:00,
2013-04-09 23:04:00,43.3,42.2,30.01,NE,56,1.0,4.0,96,0.05,,,0.95,Wunderground v.1.15,2013-04-10 03:04:00,
2013-04-09 23:05:00,43.3,42.2,30.01,ENE,57,0.0,4.0,96,0.05,,,0.95,Wunderground v.1.15,2013-04-10 03:05:00,
2013-04-09 23:07:00,43.2,42.1,30.01,ENE,60,0.0,4.0,96,0.05,,,0.95,Wunderground v.1.15,2013-04-10 03:07:00,
2013-04-09 23:08:00,43.1,42.0,30.01,ENE,60,1.0,4.0,96,0.05,,,0.95,Wunderground v.1.15,2013-04-10 03:08:00,
2013-04-09 23:09:00,43.0,41.9,30.01,ENE,61,2.0,5.0,96,0.05,,,0.95,Wunderground v.1.15,2013-04-10 03:09:00,
2013-04-09 23:11:00,42.8,41.7,30.01,ENE,70,1.0,2.0,96,0.04,,,0.95,Wunderground v.1.15,2013-04-10 03:11:00,
2013-04-09 23:13:00,42.7,41.6,30.01,ENE,63,2.0,5.0,96,0.04,,,0.95,Wunderground v.1.15,2013-04-10 03:13:00,
2013-04-09 23:14:00,42.5,41.4,30.01,ENE,68,0.0,5.0,96,0.04,,,0.95,Wunderground v.1.15,2013-04-10 03:14:00,
2013-04-09 23:16:00,42.4,41.3,30.01,NNE,29,0.0,5.0,96,0.00,,,0.95,Wunderground v.1.15,2013-04-10 03:16:00,
2013-04-09 23:18:00,42.4,41.3,30.02,NNE,29,0.0,5.0,96,0.00,,,0.95,Wunderground v.1.15,2013-04-10 03:18:00,
2013-04-09 23:19:00,42.3,41.2,30.02,NE,41,0.0,5.0,96,0.00,,,0.95,Wunderground v.1.15,2013-04-10 03:19:00,
2013-04-09 23:22:00,42.2,41.1,30.02,NE,47,0.0,1.0,96,0.00,,,0.95,Wunderground v.1.15,2013-04-10 03:22:00,
2013-04-09 23:23:00,42.2,41.1,30.02,NE,46,0.0,1.0,96,0.00,,,0.95,Wunderground v.1.15,2013-04-10 03:23:00,
2013-04-09 23:25:00,42.1,41.0,30.02,North,356,0.0,2.0,96,0.00,,,0.95,Wunderground v.1.15,2013-04-10 03:25:00,
2013-04-09 23:27:00,41.8,40.7,30.02,ENE,73,1.0,3.0,96,0.00,,,0.95,Wunderground v.1.15,2013-04-10 03:27:00,
2013-04-09 23:28:00,41.7,40.6,30.02,NNE,19,1.0,3.0,96,0.00,,,0.95,Wunderground v.1.15,2013-04-10 03:28:00,
2013-04-09 23:30:00,41.6,40.5,30.02,ENE,65,3.0,3.0,96,0.00,,,0.95,Wunderground v.1.15,2013-04-10 03:30:00,
2013-04-09 23:32:00,41.3,40.2,30.02,NNE,29,1.0,4.0,96,0.00,,,0.95,Wunderground v.1.15,2013-04-10 03:32:00,
2013-04-09 23:33:00,41.3,40.2,30.02,East,91,3.0,4.0,96,0.00,,,0.95,Wunderground v.1.15,2013-04-10 03:33:00,
2013-04-09 23:34:00,41.3,40.2,30.02,ENE,74,2.0,4.0,96,0.00,,,0.95,Wunderground v.1.15,2013-04-10 03:34:00,
2013-04-09 23:35:00,41.2,40.1,30.02,NNW,345,2.0,4.0,96,0.00,,,0.95,Wunderground v.1.15,2013-04-10 03:35:00,
2013-04-09 23:38:00,41.1,40.0,30.03,NE,45,0.0,4.0,96,0.00,,,0.95,Wunderground v.1.15,2013-04-10 03:38:00,
2013-04-09 23:39:00,41.1,40.0,30.03,NNW,342,0.0,4.0,96,0.00,,,0.95,Wunderground v.1.15,2013-04-10 03:39:00,
2013-04-09 23:41:00,41.0,39.9,30.02,East,82,2.0,3.0,96,0.00,,,0.95,Wunderground v.1.15,2013-04-10 03:41:00,
2013-04-09 23:43:00,40.9,39.8,30.02,ENE,62,0.0,3.0,96,0.00,,,0.95,Wunderground v.1.15,2013-04-10 03:43:00,
2013-04-09 23:44:00,40.9,39.8,30.03,North,3,2.0,3.0,96,0.00,,,0.95,Wunderground v.1.15,2013-04-10 03:44:00,
2013-04-09 23:47:00,40.9,39.8,30.03,ENE,69,4.0,4.0,96,0.00,,,0.95,Wunderground v.1.15,2013-04-10 03:47:00,
2013-04-09 23:48:00,40.9,39.8,30.03,ENE,68,1.0,4.0,96,0.00,,,0.95,Wunderground v.1.15,2013-04-10 03:48:00,
2013-04-09 23:49:00,40.8,39.7,30.03,ENE,68,0.0,4.0,96,0.00,,,0.95,Wunderground v.1.15,2013-04-10 03:49:00,
2013-04-09 23:52:00,40.8,39.7,30.02,East,79,0.0,3.0,96,0.00,,,0.95,Wunderground v.1.15,2013-04-10 03:52:00,
2013-04-09 23:53:00,40.8,39.7,30.02,East,79,0.0,3.0,96,0.00,,,0.95,Wunderground v.1.15,2013-04-10 03:53:00,
2013-04-09 23:54:00,40.7,39.6,30.02,East,84,1.0,3.0,96,0.00,,,0.95,Wunderground v.1.15,2013-04-10 03:54:00,
2013-04-09 23:57:00,40.7,39.6,30.03,ENE,63,0.0,3.0,96,0.00,,,0.95,Wunderground v.1.15,2013-04-10 03:57:00,
2013-04-09 23:58:00,40.7,39.6,30.02,NNE,13,0.0,3.0,96,0.00,,,0.95,Wunderground v.1.15,2013-04-10 03:58:00,
2013-04-09 23:59:00,40.7,39.6,30.02,East,91,1.0,3.0,96,0.00,,,0.95,Wunderground v.1.15,2013-04-10 03:59:00,